TPC346 KVNY-KFSD

Flight info

Callsign TPC346
Flight time 5h 25m
Altitude 18000
Route NUAL1 DAG LAS BAWER
Aircraft DA42/L-SBDGRY/S

Departure

Time 2026-04-25 07:01
Airport Van Nuys Airport (KVNY)

Arrival

Time 2026-04-25 12:26
Airport Sioux Falls Regional Airport (KFSD)
Time Latitude Longitude Altitude Speed Heading
2026-04-25 07:00 34.20242 -118.52060 7388 ft 94 kts 292°
2026-04-25 07:01 34.20525 -118.52781 7671 ft 94 kts 292°
2026-04-25 07:01 34.20806 -118.53495 7943 ft 94 kts 292°
2026-04-25 07:01 34.21085 -118.54209 8216 ft 94 kts 291°
2026-04-25 07:01 34.21352 -118.54890 8476 ft 94 kts 291°
2026-04-25 07:02 34.21632 -118.55605 8760 ft 94 kts 291°
2026-04-25 07:02 34.21911 -118.56318 9042 ft 94 kts 290°
2026-04-25 07:02 34.22204 -118.57024 9321 ft 95 kts 298°
2026-04-25 07:02 34.22706 -118.57572 9608 ft 102 kts 324°
2026-04-25 07:03 34.23368 -118.57913 9878 ft 104 kts 329°
2026-04-25 07:03 34.24043 -118.58244 10131 ft 105 kts 329°
2026-04-25 07:03 34.24718 -118.58574 10387 ft 105 kts 328°
2026-04-25 07:03 34.25394 -118.58905 10645 ft 105 kts 328°
2026-04-25 07:04 34.26068 -118.59236 10902 ft 105 kts 328°
2026-04-25 07:04 34.26743 -118.59567 11170 ft 104 kts 327°
2026-04-25 07:04 34.27417 -118.59899 11442 ft 105 kts 327°
2026-04-25 07:04 34.28093 -118.60231 11707 ft 105 kts 327°
2026-04-25 07:05 34.28768 -118.60563 11985 ft 105 kts 326°
2026-04-25 07:05 34.29434 -118.60891 12261 ft 105 kts 326°
2026-04-25 07:05 34.30156 -118.61115 12538 ft 113 kts 346°
2026-04-25 07:05 34.30961 -118.60920 12800 ft 126 kts 16°
2026-04-25 07:06 34.31646 -118.60210 13066 ft 136 kts 52°
2026-04-25 07:06 34.32136 -118.59207 13314 ft 140 kts 56°
2026-04-25 07:06 34.32614 -118.58176 13595 ft 141 kts 56°
2026-04-25 07:06 34.33096 -118.57133 13821 ft 142 kts 56°
2026-04-25 07:07 34.33588 -118.56086 14012 ft 143 kts 56°
2026-04-25 07:07 34.34082 -118.55038 14233 ft 144 kts 54°
2026-04-25 07:07 34.34579 -118.53984 14471 ft 145 kts 56°
2026-04-25 07:07 34.35076 -118.52918 14709 ft 146 kts 56°
2026-04-25 07:08 34.35578 -118.51850 14930 ft 147 kts 56°
2026-04-25 07:08 34.36083 -118.50770 15160 ft 148 kts 56°
2026-04-25 07:08 34.36589 -118.49688 15397 ft 148 kts 56°
2026-04-25 07:08 34.37101 -118.48598 15640 ft 150 kts 56°
2026-04-25 07:09 34.37619 -118.47495 15869 ft 151 kts 56°
2026-04-25 07:09 34.38134 -118.46397 16105 ft 152 kts 56°
2026-04-25 07:09 34.38737 -118.45351 16351 ft 151 kts 47°
2026-04-25 07:09 34.39372 -118.44339 16590 ft 152 kts 46°
2026-04-25 07:10 34.40013 -118.43321 16826 ft 153 kts 47°
2026-04-25 07:10 34.40659 -118.42296 17036 ft 154 kts 46°
2026-04-25 07:10 34.41311 -118.41259 17269 ft 155 kts 46°
2026-04-25 07:10 34.41965 -118.40219 17498 ft 156 kts 46°
2026-04-25 07:11 34.42564 -118.39267 17719 ft 157 kts 47°
2026-04-25 07:11 34.43211 -118.38237 17936 ft 158 kts 47°
2026-04-25 07:11 34.43911 -118.37126 17970 ft 174 kts 47°
2026-04-25 07:11 34.44667 -118.35920 17969 ft 189 kts 47°
2026-04-25 07:12 34.45487 -118.34614 17957 ft 200 kts 48°
2026-04-25 07:12 34.47239 -118.31819 17956 ft 214 kts 48°
2026-04-25 07:12 34.48150 -118.30370 17950 ft 219 kts 48°
2026-04-25 07:13 34.49081 -118.28886 17943 ft 222 kts 48°
2026-04-25 07:13 34.50019 -118.27394 17943 ft 223 kts 48°
2026-04-25 07:13 34.50962 -118.25889 17941 ft 225 kts 48°
2026-04-25 07:13 34.51906 -118.24376 17942 ft 225 kts 48°
2026-04-25 07:14 34.52851 -118.22865 17944 ft 225 kts 48°
2026-04-25 07:14 34.53800 -118.21351 17946 ft 226 kts 48°
2026-04-25 07:14 34.54750 -118.19827 17943 ft 226 kts 48°
2026-04-25 07:14 34.55697 -118.18312 17933 ft 225 kts 48°
2026-04-25 07:15 34.56646 -118.16800 17954 ft 224 kts 48°
2026-04-25 07:15 34.57545 -118.15354 18335 ft 203 kts 47°
2026-04-25 07:15 34.58375 -118.14021 18547 ft 197 kts 47°
2026-04-25 07:15 34.59193 -118.12716 18758 ft 189 kts 47°
2026-04-25 07:16 34.59944 -118.11508 19142 ft 174 kts 46°
2026-04-25 07:16 34.60681 -118.10332 19282 ft 176 kts 46°
2026-04-25 07:16 34.61425 -118.09141 19446 ft 177 kts 46°
2026-04-25 07:16 34.62169 -118.07946 19611 ft 178 kts 46°
2026-04-25 07:17 34.62888 -118.06720 19786 ft 181 kts 57°
2026-04-25 07:17 34.63267 -118.05259 19961 ft 183 kts 81°
2026-04-25 07:17 34.63446 -118.03718 20113 ft 185 kts 83°
2026-04-25 07:17 34.63610 -118.02165 20272 ft 186 kts 84°
2026-04-25 07:18 34.63777 -118.00603 20437 ft 187 kts 83°
2026-04-25 07:18 34.63948 -117.99039 20599 ft 187 kts 83°
2026-04-25 07:18 34.64120 -117.97468 20758 ft 188 kts 83°
2026-04-25 07:18 34.64293 -117.95891 20913 ft 189 kts 83°
2026-04-25 07:19 34.64466 -117.94308 21070 ft 189 kts 83°
2026-04-25 07:19 34.64639 -117.92719 21221 ft 190 kts 83°
2026-04-25 07:19 34.64813 -117.91126 21370 ft 191 kts 83°
2026-04-25 07:19 34.64987 -117.89527 21518 ft 191 kts 83°
2026-04-25 07:20 34.65161 -117.87924 21667 ft 192 kts 83°
2026-04-25 07:20 34.65336 -117.86312 21812 ft 193 kts 83°
2026-04-25 07:20 34.65512 -117.84696 21971 ft 193 kts 83°
2026-04-25 07:20 34.65687 -117.83071 22107 ft 194 kts 83°
2026-04-25 07:21 34.65864 -117.81443 22251 ft 195 kts 83°
2026-04-25 07:21 34.66041 -117.79809 22399 ft 195 kts 83°
2026-04-25 07:21 34.66218 -117.78169 22533 ft 196 kts 83°
2026-04-25 07:21 34.66399 -117.76547 22649 ft 197 kts 79°
2026-04-25 07:22 34.66765 -117.74944 22788 ft 196 kts 71°
2026-04-25 07:22 34.67177 -117.73357 22922 ft 197 kts 70°
2026-04-25 07:22 34.67593 -117.71766 23055 ft 198 kts 70°
2026-04-25 07:22 34.68005 -117.70168 23179 ft 198 kts 70°
2026-04-25 07:23 34.68416 -117.68565 23329 ft 199 kts 70°
2026-04-25 07:23 34.68829 -117.66956 23458 ft 200 kts 70°
2026-04-25 07:23 34.69243 -117.65341 23573 ft 200 kts 70°
2026-04-25 07:23 34.69657 -117.63724 23674 ft 201 kts 70°
2026-04-25 07:24 34.70072 -117.62105 23782 ft 201 kts 70°
2026-04-25 07:24 34.70488 -117.60479 23895 ft 201 kts 70°
2026-04-25 07:24 34.70905 -117.58850 24009 ft 202 kts 70°
2026-04-25 07:24 34.71322 -117.57220 24112 ft 202 kts 70°
2026-04-25 07:25 34.71739 -117.55589 24211 ft 202 kts 71°
2026-04-25 07:25 34.72156 -117.53954 24306 ft 202 kts 71°
2026-04-25 07:25 34.72567 -117.52342 24394 ft 203 kts 71°
2026-04-25 07:25 34.72986 -117.50701 24488 ft 203 kts 71°
2026-04-25 07:26 34.73405 -117.49056 24580 ft 204 kts 71°
2026-04-25 07:26 34.73825 -117.47408 24670 ft 204 kts 70°
2026-04-25 07:26 34.74245 -117.45756 24743 ft 205 kts 70°
2026-04-25 07:26 34.74668 -117.44096 24833 ft 206 kts 70°
2026-04-25 07:27 34.75090 -117.42433 24921 ft 206 kts 70°
2026-04-25 07:27 34.75518 -117.40749 24937 ft 212 kts 70°
2026-04-25 07:27 34.75956 -117.39025 24940 ft 217 kts 70°
2026-04-25 07:27 34.76405 -117.37252 24943 ft 221 kts 70°
2026-04-25 07:28 34.76861 -117.35452 24939 ft 225 kts 70°
2026-04-25 07:28 34.77324 -117.33625 24938 ft 227 kts 70°
2026-04-25 07:28 34.77791 -117.31781 24935 ft 229 kts 70°
2026-04-25 07:28 34.78262 -117.29922 24931 ft 231 kts 70°
2026-04-25 07:29 34.78736 -117.28048 24928 ft 232 kts 70°
2026-04-25 07:29 34.79212 -117.26165 24923 ft 233 kts 71°
2026-04-25 07:29 34.79688 -117.24276 24919 ft 234 kts 71°
2026-04-25 07:29 34.80168 -117.22376 24912 ft 235 kts 71°
2026-04-25 07:30 34.80647 -117.20472 24904 ft 236 kts 71°
2026-04-25 07:30 34.81128 -117.18565 24868 ft 236 kts 71°
2026-04-25 07:30 34.81610 -117.16647 24868 ft 237 kts 70°
2026-04-25 07:30 34.82093 -117.14728 24870 ft 237 kts 70°
2026-04-25 07:31 34.82576 -117.12809 24869 ft 237 kts 70°
2026-04-25 07:31 34.83059 -117.10886 24865 ft 237 kts 70°
2026-04-25 07:31 34.83540 -117.08967 24866 ft 237 kts 70°
2026-04-25 07:31 34.84023 -117.07042 24869 ft 237 kts 70°
2026-04-25 07:32 34.84500 -117.05141 24873 ft 238 kts 70°
2026-04-25 07:32 34.84983 -117.03212 24872 ft 238 kts 70°
2026-04-25 07:32 34.85465 -117.01285 24875 ft 238 kts 70°
2026-04-25 07:32 34.85946 -116.99358 24876 ft 238 kts 70°
2026-04-25 07:33 34.86428 -116.97432 24876 ft 237 kts 70°
2026-04-25 07:33 34.86908 -116.95507 24878 ft 237 kts 70°
2026-04-25 07:33 34.87387 -116.93587 24880 ft 237 kts 70°
2026-04-25 07:33 34.87866 -116.91666 24884 ft 237 kts 70°
2026-04-25 07:34 34.88346 -116.89742 24888 ft 238 kts 70°
2026-04-25 07:34 34.88825 -116.87812 24884 ft 238 kts 70°
2026-04-25 07:34 34.89309 -116.85873 24884 ft 240 kts 69°
2026-04-25 07:34 34.89792 -116.83931 24883 ft 240 kts 69°
2026-04-25 07:35 34.90275 -116.81984 24883 ft 240 kts 69°
2026-04-25 07:35 34.90759 -116.80034 24883 ft 240 kts 69°
2026-04-25 07:35 34.91242 -116.78086 24884 ft 240 kts 69°
2026-04-25 07:35 34.91725 -116.76136 24884 ft 241 kts 69°
2026-04-25 07:36 34.92209 -116.74183 24883 ft 241 kts 69°
2026-04-25 07:36 34.92693 -116.72225 24883 ft 241 kts 69°
2026-04-25 07:36 34.93176 -116.70272 24880 ft 241 kts 69°
2026-04-25 07:36 34.93659 -116.68318 24876 ft 241 kts 69°
2026-04-25 07:37 34.94142 -116.66361 24870 ft 241 kts 69°
2026-04-25 07:37 34.94618 -116.64428 24866 ft 241 kts 69°
2026-04-25 07:37 34.95107 -116.62445 24858 ft 241 kts 69°
2026-04-25 07:37 34.95588 -116.60491 24853 ft 241 kts 69°
2026-04-25 07:38 34.96110 -116.58582 24849 ft 239 kts 59°
2026-04-25 07:38 34.96983 -116.56921 24842 ft 228 kts 37°
2026-04-25 07:38 34.98068 -116.55534 24842 ft 227 kts 33°
2026-04-25 07:38 34.99173 -116.54167 24846 ft 226 kts 33°
2026-04-25 07:39 35.00281 -116.52798 24829 ft 227 kts 33°
2026-04-25 07:39 35.01384 -116.51427 24825 ft 226 kts 33°
2026-04-25 07:39 35.02485 -116.50055 24819 ft 226 kts 33°
2026-04-25 07:39 35.03587 -116.48681 24815 ft 226 kts 33°
2026-04-25 07:40 35.04689 -116.47308 24812 ft 226 kts 33°
2026-04-25 07:40 35.05790 -116.45933 24794 ft 226 kts 33°
2026-04-25 07:40 35.06887 -116.44564 24788 ft 225 kts 33°
2026-04-25 07:40 35.07983 -116.43199 24790 ft 225 kts 33°
2026-04-25 07:41 35.09084 -116.41826 24787 ft 226 kts 33°
2026-04-25 07:41 35.10181 -116.40456 24784 ft 226 kts 33°
2026-04-25 07:41 35.11281 -116.39080 24790 ft 226 kts 33°
2026-04-25 07:41 35.12364 -116.37725 24783 ft 226 kts 33°
2026-04-25 07:42 35.13462 -116.36352 24777 ft 226 kts 33°
2026-04-25 07:42 35.14557 -116.34982 24779 ft 225 kts 33°
2026-04-25 07:42 35.15653 -116.33611 24809 ft 226 kts 33°
2026-04-25 07:42 35.16749 -116.32238 24807 ft 226 kts 33°
2026-04-25 07:43 35.17849 -116.30861 24817 ft 227 kts 33°
2026-04-25 07:43 35.18581 -116.29944 24806 ft 227 kts 33°
2026-04-25 07:43 35.19688 -116.28557 24818 ft 228 kts 33°
2026-04-25 07:43 35.20797 -116.27165 24796 ft 228 kts 33°
2026-04-25 07:44 35.21903 -116.25786 24793 ft 227 kts 32°
2026-04-25 07:44 35.23003 -116.24399 24778 ft 227 kts 33°
2026-04-25 07:44 35.24103 -116.23015 24778 ft 227 kts 33°
2026-04-25 07:44 35.25202 -116.21630 24773 ft 226 kts 33°
2026-04-25 07:45 35.26299 -116.20250 24770 ft 226 kts 33°
2026-04-25 07:45 35.27392 -116.18882 24777 ft 225 kts 33°
2026-04-25 07:45 35.28480 -116.17509 24775 ft 224 kts 33°
2026-04-25 07:45 35.29570 -116.16142 24774 ft 224 kts 33°
2026-04-25 07:46 35.30656 -116.14774 24777 ft 224 kts 33°
2026-04-25 07:46 35.31743 -116.13404 24788 ft 224 kts 33°
2026-04-25 07:46 35.32827 -116.12040 24788 ft 224 kts 33°
2026-04-25 07:46 35.33914 -116.10670 24789 ft 224 kts 33°
2026-04-25 07:47 35.34998 -116.09305 24788 ft 224 kts 33°
2026-04-25 07:47 35.36085 -116.07934 24789 ft 224 kts 33°
2026-04-25 07:47 35.37173 -116.06561 24789 ft 225 kts 33°
2026-04-25 07:47 35.38250 -116.05201 24790 ft 225 kts 33°
2026-04-25 07:48 35.39356 -116.03803 24789 ft 226 kts 33°
2026-04-25 07:48 35.40437 -116.02441 24790 ft 226 kts 33°
2026-04-25 07:48 35.41530 -116.01058 24805 ft 226 kts 33°
2026-04-25 07:48 35.42623 -115.99673 24805 ft 226 kts 33°
2026-04-25 07:49 35.43719 -115.98287 24808 ft 226 kts 33°
2026-04-25 07:49 35.44815 -115.96901 24809 ft 227 kts 33°
2026-04-25 07:49 35.45914 -115.95509 24810 ft 227 kts 33°
2026-04-25 07:49 35.47015 -115.94115 24816 ft 228 kts 33°
2026-04-25 07:50 35.48119 -115.92717 24816 ft 228 kts 33°
2026-04-25 07:50 35.49219 -115.91322 24815 ft 227 kts 33°
2026-04-25 07:50 35.50319 -115.89928 24818 ft 227 kts 33°
2026-04-25 07:50 35.51419 -115.88532 24833 ft 228 kts 33°
2026-04-25 07:51 35.52518 -115.87136 24826 ft 227 kts 33°
2026-04-25 07:51 35.53616 -115.85741 24825 ft 227 kts 33°
2026-04-25 07:51 35.54714 -115.84347 24826 ft 227 kts 33°
2026-04-25 07:51 35.55812 -115.82952 24825 ft 227 kts 33°
2026-04-25 07:52 35.56893 -115.81578 24828 ft 227 kts 33°
2026-04-25 07:52 35.58004 -115.80165 24829 ft 227 kts 33°
2026-04-25 07:52 35.59103 -115.78767 24826 ft 227 kts 33°
2026-04-25 07:52 35.60185 -115.77388 24825 ft 227 kts 33°
2026-04-25 07:53 35.61278 -115.75996 24835 ft 226 kts 33°
2026-04-25 07:53 35.62371 -115.74605 24835 ft 226 kts 33°
2026-04-25 07:53 35.63465 -115.73210 24836 ft 226 kts 33°
2026-04-25 07:53 35.64558 -115.71816 24836 ft 227 kts 33°
2026-04-25 07:54 35.65651 -115.70422 24834 ft 226 kts 33°
2026-04-25 07:54 35.66746 -115.69024 24835 ft 227 kts 33°
2026-04-25 07:54 35.67842 -115.67626 24836 ft 227 kts 33°
2026-04-25 07:54 35.68940 -115.66228 24829 ft 227 kts 32°
2026-04-25 07:55 35.70032 -115.64834 24835 ft 226 kts 33°
2026-04-25 07:55 35.71121 -115.63436 24841 ft 226 kts 32°
2026-04-25 07:55 35.72206 -115.62043 24841 ft 226 kts 32°
2026-04-25 07:55 35.73295 -115.60649 24840 ft 225 kts 32°
2026-04-25 07:56 35.74381 -115.59262 24839 ft 225 kts 32°
2026-04-25 07:56 35.75466 -115.57874 24840 ft 225 kts 32°
2026-04-25 07:56 35.76538 -115.56502 24841 ft 225 kts 32°
2026-04-25 07:56 35.77626 -115.55109 24844 ft 226 kts 32°
2026-04-25 07:57 35.78722 -115.53706 24840 ft 227 kts 32°
2026-04-25 07:57 35.79817 -115.52299 24840 ft 227 kts 32°
2026-04-25 07:57 35.80912 -115.50891 24844 ft 228 kts 32°
2026-04-25 07:57 35.82014 -115.49479 24839 ft 229 kts 32°
2026-04-25 07:58 35.83115 -115.48065 24852 ft 228 kts 32°
2026-04-25 07:58 35.84216 -115.46651 24835 ft 229 kts 32°
2026-04-25 07:58 35.85313 -115.45239 24836 ft 227 kts 31°
2026-04-25 07:58 35.86405 -115.43835 24837 ft 226 kts 31°
2026-04-25 07:59 35.87494 -115.42434 24839 ft 227 kts 31°
2026-04-25 07:59 35.88589 -115.41027 24836 ft 228 kts 31°
2026-04-25 07:59 35.89686 -115.39612 24837 ft 228 kts 32°
2026-04-25 07:59 35.90781 -115.38201 24827 ft 227 kts 31°
2026-04-25 08:00 35.91871 -115.36800 24826 ft 226 kts 31°
2026-04-25 08:00 35.92957 -115.35405 24828 ft 226 kts 32°
2026-04-25 08:00 35.94026 -115.34017 24829 ft 226 kts 32°
2026-04-25 08:00 35.95111 -115.32615 24845 ft 227 kts 31°
2026-04-25 08:01 35.96207 -115.31202 24846 ft 228 kts 31°
2026-04-25 08:01 35.97303 -115.29789 24848 ft 228 kts 31°
2026-04-25 08:01 35.98403 -115.28367 24840 ft 228 kts 31°
2026-04-25 08:01 35.99501 -115.26951 24840 ft 228 kts 31°
2026-04-25 08:02 36.00594 -115.25539 24839 ft 227 kts 31°
2026-04-25 08:02 36.01684 -115.24127 24813 ft 227 kts 31°
2026-04-25 08:02 36.02772 -115.22718 24814 ft 226 kts 31°
2026-04-25 08:02 36.03863 -115.21306 24813 ft 226 kts 31°
2026-04-25 08:03 36.04950 -115.19898 24813 ft 226 kts 31°
2026-04-25 08:03 36.06022 -115.18509 24813 ft 226 kts 31°
2026-04-25 08:03 36.07109 -115.17100 24813 ft 226 kts 31°
2026-04-25 08:03 36.08162 -115.15636 24810 ft 234 kts 41°
2026-04-25 08:04 36.09103 -115.13992 24814 ft 235 kts 42°
2026-04-25 08:04 36.10033 -115.12328 24814 ft 235 kts 42°
2026-04-25 08:04 36.10962 -115.10667 24814 ft 235 kts 42°
2026-04-25 08:04 36.11892 -115.09011 24814 ft 235 kts 42°
2026-04-25 08:05 36.12825 -115.07353 24814 ft 235 kts 42°
2026-04-25 08:05 36.13755 -115.05699 24812 ft 235 kts 42°
2026-04-25 08:05 36.14686 -115.04039 24749 ft 235 kts 42°
2026-04-25 08:05 36.15618 -115.02379 24741 ft 235 kts 42°
2026-04-25 08:06 36.16554 -115.00712 24753 ft 236 kts 42°
2026-04-25 08:06 36.17457 -114.98991 24743 ft 242 kts 50°
2026-04-25 08:06 36.18368 -114.97295 24740 ft 230 kts 42°
2026-04-25 08:06 36.19322 -114.95718 24735 ft 229 kts 40°
2026-04-25 08:07 36.20269 -114.94121 24734 ft 231 kts 43°
2026-04-25 08:07 36.21187 -114.92475 24742 ft 232 kts 44°
2026-04-25 08:07 36.22096 -114.90822 24739 ft 232 kts 44°
2026-04-25 08:07 36.23009 -114.89177 24734 ft 231 kts 44°
2026-04-25 08:08 36.23929 -114.87533 24732 ft 232 kts 44°
2026-04-25 08:08 36.24849 -114.85887 24729 ft 233 kts 44°
2026-04-25 08:08 36.25772 -114.84234 24725 ft 233 kts 44°
2026-04-25 08:08 36.26681 -114.82604 24722 ft 233 kts 44°
2026-04-25 08:09 36.27606 -114.80944 24719 ft 234 kts 44°
2026-04-25 08:09 36.28532 -114.79282 24720 ft 234 kts 44°
2026-04-25 08:09 36.29456 -114.77618 24710 ft 234 kts 44°
2026-04-25 08:09 36.30384 -114.75959 24702 ft 234 kts 44°
2026-04-25 08:10 36.31309 -114.74300 24707 ft 234 kts 44°
2026-04-25 08:10 36.32233 -114.72630 24693 ft 235 kts 44°
2026-04-25 08:10 36.33157 -114.70965 24693 ft 234 kts 44°
2026-04-25 08:10 36.34087 -114.69306 24693 ft 234 kts 44°
2026-04-25 08:11 36.35009 -114.67641 24681 ft 234 kts 44°
2026-04-25 08:11 36.35930 -114.65978 24684 ft 234 kts 44°
2026-04-25 08:11 36.36856 -114.64312 24671 ft 234 kts 44°
2026-04-25 08:11 36.37785 -114.62646 24674 ft 235 kts 44°
2026-04-25 08:12 36.38700 -114.60993 24667 ft 235 kts 44°
2026-04-25 08:12 36.39625 -114.59322 24654 ft 234 kts 43°
2026-04-25 08:12 36.40544 -114.57673 24675 ft 232 kts 44°
2026-04-25 08:12 36.41449 -114.56022 24676 ft 230 kts 44°
2026-04-25 08:13 36.42353 -114.54379 24684 ft 231 kts 44°
2026-04-25 08:13 36.43267 -114.52733 24678 ft 232 kts 44°
2026-04-25 08:13 36.44184 -114.51079 24672 ft 232 kts 44°
2026-04-25 08:14 36.46017 -114.47761 24675 ft 233 kts 44°
2026-04-25 08:14 36.46935 -114.46099 24674 ft 234 kts 44°
2026-04-25 08:14 36.47853 -114.44434 24681 ft 234 kts 44°
2026-04-25 08:14 36.48773 -114.42765 24681 ft 234 kts 44°
2026-04-25 08:15 36.49695 -114.41092 24679 ft 234 kts 44°
2026-04-25 08:15 36.50604 -114.39443 24675 ft 234 kts 44°
2026-04-25 08:15 36.51527 -114.37766 24680 ft 236 kts 45°
2026-04-25 08:15 36.52454 -114.36080 24675 ft 235 kts 45°
2026-04-25 08:16 36.53374 -114.34406 24675 ft 234 kts 44°
2026-04-25 08:16 36.54294 -114.32738 24704 ft 234 kts 44°
2026-04-25 08:16 36.55218 -114.31066 24684 ft 235 kts 47°
2026-04-25 08:16 36.56136 -114.29383 24683 ft 235 kts 47°
2026-04-25 08:17 36.57057 -114.27702 24685 ft 235 kts 46°
2026-04-25 08:17 36.57976 -114.26029 24681 ft 234 kts 46°
2026-04-25 08:17 36.58883 -114.24365 24683 ft 231 kts 47°
2026-04-25 08:17 36.59789 -114.22717 24684 ft 230 kts 46°
2026-04-25 08:18 36.60695 -114.21077 24679 ft 229 kts 46°
2026-04-25 08:18 36.61592 -114.19439 24689 ft 229 kts 46°
2026-04-25 08:18 36.62492 -114.17797 24690 ft 230 kts 46°
2026-04-25 08:18 36.63393 -114.16148 24691 ft 231 kts 46°
2026-04-25 08:19 36.64298 -114.14495 24685 ft 231 kts 46°
2026-04-25 08:19 36.65202 -114.12841 24699 ft 231 kts 46°
2026-04-25 08:19 36.66106 -114.11180 24697 ft 232 kts 46°
2026-04-25 08:19 36.67012 -114.09522 24701 ft 231 kts 46°
2026-04-25 08:20 36.67918 -114.07862 24700 ft 232 kts 46°
2026-04-25 08:20 36.68824 -114.06202 24704 ft 231 kts 47°
2026-04-25 08:20 36.69726 -114.04548 24706 ft 230 kts 47°
2026-04-25 08:20 36.70614 -114.02918 24705 ft 230 kts 47°
2026-04-25 08:21 36.71508 -114.01275 24703 ft 229 kts 47°
2026-04-25 08:21 36.72403 -113.99633 24719 ft 229 kts 47°
2026-04-25 08:21 36.73298 -113.97989 24719 ft 229 kts 47°
2026-04-25 08:21 36.74192 -113.96347 24718 ft 229 kts 47°
2026-04-25 08:22 36.75086 -113.94703 24716 ft 230 kts 47°
2026-04-25 08:22 36.75985 -113.93049 24718 ft 231 kts 47°
2026-04-25 08:22 36.76885 -113.91391 24719 ft 231 kts 47°
2026-04-25 08:22 36.77787 -113.89728 24716 ft 232 kts 47°
2026-04-25 08:23 36.78694 -113.88062 24714 ft 233 kts 47°
2026-04-25 08:23 36.79602 -113.86388 24731 ft 233 kts 47°
2026-04-25 08:23 36.80508 -113.84709 24728 ft 234 kts 47°
2026-04-25 08:23 36.81419 -113.83034 24726 ft 232 kts 47°
2026-04-25 08:24 36.82320 -113.81370 24732 ft 231 kts 47°
2026-04-25 08:24 36.83217 -113.79710 24741 ft 230 kts 47°
2026-04-25 08:24 36.84117 -113.78049 24753 ft 232 kts 47°
2026-04-25 08:24 36.85017 -113.76380 24758 ft 232 kts 47°
2026-04-25 08:25 36.85920 -113.74709 24776 ft 231 kts 48°
2026-04-25 08:25 36.86817 -113.73048 24775 ft 230 kts 48°
2026-04-25 08:25 36.87695 -113.71421 24778 ft 228 kts 47°
2026-04-25 08:25 36.88580 -113.69787 24784 ft 226 kts 47°
2026-04-25 08:26 36.89456 -113.68160 24786 ft 226 kts 48°
2026-04-25 08:26 36.90335 -113.66531 24794 ft 226 kts 48°
2026-04-25 08:26 36.91215 -113.64901 24821 ft 226 kts 48°
2026-04-25 08:26 36.92096 -113.63269 24807 ft 226 kts 49°
2026-04-25 08:27 36.92971 -113.61636 24815 ft 226 kts 49°
2026-04-25 08:27 36.93846 -113.60009 24819 ft 225 kts 49°
2026-04-25 08:27 36.94719 -113.58387 24821 ft 224 kts 49°
2026-04-25 08:27 36.95587 -113.56775 24825 ft 223 kts 49°
2026-04-25 08:28 36.96453 -113.55164 24823 ft 223 kts 49°
2026-04-25 08:28 36.97318 -113.53553 24824 ft 223 kts 49°
2026-04-25 08:28 36.98182 -113.51943 24824 ft 223 kts 49°
2026-04-25 08:28 36.99045 -113.50335 24825 ft 223 kts 49°
2026-04-25 08:29 36.99618 -113.49267 24824 ft 223 kts 49°
2026-04-25 08:29 37.00485 -113.47649 24824 ft 223 kts 49°
2026-04-25 08:29 37.01629 -113.45515 24824 ft 223 kts 49°
2026-04-25 08:29 37.02212 -113.44426 24824 ft 223 kts 49°
2026-04-25 08:30 37.03076 -113.42813 24775 ft 223 kts 49°
2026-04-25 08:30 37.03938 -113.41203 24783 ft 223 kts 49°
2026-04-25 08:30 37.04803 -113.39585 24783 ft 224 kts 49°
2026-04-25 08:30 37.05667 -113.37969 24787 ft 223 kts 49°
2026-04-25 08:31 37.06526 -113.36363 24795 ft 221 kts 49°
2026-04-25 08:31 37.07369 -113.34784 24802 ft 221 kts 49°
2026-04-25 08:31 37.08224 -113.33182 24808 ft 221 kts 49°
2026-04-25 08:31 37.09077 -113.31584 24813 ft 221 kts 49°
2026-04-25 08:32 37.09932 -113.29982 24823 ft 222 kts 49°
2026-04-25 08:32 37.10794 -113.28366 24815 ft 223 kts 49°
2026-04-25 08:32 37.11651 -113.26754 24818 ft 222 kts 49°
2026-04-25 08:32 37.12509 -113.25142 24822 ft 222 kts 49°
2026-04-25 08:33 37.13366 -113.23534 24823 ft 222 kts 49°
2026-04-25 08:33 37.14224 -113.21922 24825 ft 222 kts 49°
2026-04-25 08:33 37.15081 -113.20312 24822 ft 221 kts 49°
2026-04-25 08:33 37.15934 -113.18706 24825 ft 221 kts 49°
2026-04-25 08:34 37.16788 -113.17098 24824 ft 222 kts 49°
2026-04-25 08:34 37.17643 -113.15490 24826 ft 222 kts 49°
2026-04-25 08:34 37.18502 -113.13878 24824 ft 222 kts 49°
2026-04-25 08:34 37.19357 -113.12263 24820 ft 223 kts 49°
2026-04-25 08:35 37.20211 -113.10643 24821 ft 223 kts 49°
2026-04-25 08:35 37.21066 -113.09030 24822 ft 221 kts 49°
2026-04-25 08:35 37.21917 -113.07426 24819 ft 220 kts 49°
2026-04-25 08:35 37.22766 -113.05825 24816 ft 221 kts 49°
2026-04-25 08:36 37.23617 -113.04217 24813 ft 221 kts 49°
2026-04-25 08:36 37.24463 -113.02621 24795 ft 218 kts 49°
2026-04-25 08:36 37.25286 -113.01051 24803 ft 214 kts 49°
2026-04-25 08:36 37.26114 -112.99487 24790 ft 217 kts 48°
2026-04-25 08:37 37.26941 -112.97933 24749 ft 217 kts 49°
2026-04-25 08:37 37.27767 -112.96341 24776 ft 218 kts 49°
2026-04-25 08:37 37.28620 -112.94755 24744 ft 219 kts 47°
2026-04-25 08:37 37.29477 -112.93154 24752 ft 222 kts 49°
2026-04-25 08:38 37.30326 -112.91528 24749 ft 223 kts 49°
2026-04-25 08:38 37.31179 -112.89898 24745 ft 223 kts 49°
2026-04-25 08:38 37.32035 -112.88269 24745 ft 224 kts 49°
2026-04-25 08:38 37.32891 -112.86639 24740 ft 223 kts 48°
2026-04-25 08:39 37.33754 -112.85014 24743 ft 223 kts 49°
2026-04-25 08:39 37.34607 -112.83387 24745 ft 223 kts 49°
2026-04-25 08:39 37.35456 -112.81765 24744 ft 222 kts 49°
2026-04-25 08:39 37.36294 -112.80171 24741 ft 221 kts 49°
2026-04-25 08:40 37.37141 -112.78561 24743 ft 220 kts 49°
2026-04-25 08:40 37.37984 -112.76956 24755 ft 220 kts 49°
2026-04-25 08:40 37.38826 -112.75350 24755 ft 220 kts 49°
2026-04-25 08:40 37.39670 -112.73739 24755 ft 220 kts 49°
2026-04-25 08:41 37.40513 -112.72134 24749 ft 219 kts 49°
2026-04-25 08:41 37.41348 -112.70531 24754 ft 219 kts 49°
2026-04-25 08:41 37.42189 -112.68934 24756 ft 220 kts 49°
2026-04-25 08:41 37.43034 -112.67328 24754 ft 220 kts 49°
2026-04-25 08:42 37.43872 -112.65723 24751 ft 219 kts 49°
2026-04-25 08:42 37.44710 -112.64118 24751 ft 219 kts 49°
2026-04-25 08:42 37.45547 -112.62515 24752 ft 220 kts 49°
2026-04-25 08:42 37.46387 -112.60907 24752 ft 220 kts 49°
2026-04-25 08:43 37.47227 -112.59299 24754 ft 220 kts 49°
2026-04-25 08:43 37.48056 -112.57710 24748 ft 220 kts 49°
2026-04-25 08:43 37.48896 -112.56101 24747 ft 219 kts 49°
2026-04-25 08:43 37.49734 -112.54494 24748 ft 219 kts 49°
2026-04-25 08:44 37.50569 -112.52890 24743 ft 219 kts 49°
2026-04-25 08:44 37.51408 -112.51279 24745 ft 220 kts 49°
2026-04-25 08:44 37.52247 -112.49666 24763 ft 219 kts 49°
2026-04-25 08:44 37.53086 -112.48057 24783 ft 219 kts 49°
2026-04-25 08:45 37.53924 -112.46449 24798 ft 220 kts 49°
2026-04-25 08:45 37.54762 -112.44836 24809 ft 221 kts 50°
2026-04-25 08:45 37.55603 -112.43216 24822 ft 220 kts 50°
2026-04-25 08:45 37.56442 -112.41600 24836 ft 220 kts 50°
2026-04-25 08:46 37.57272 -112.40000 24850 ft 221 kts 50°
2026-04-25 08:46 37.58117 -112.38377 24864 ft 221 kts 50°
2026-04-25 08:46 37.58962 -112.36745 24877 ft 222 kts 50°
2026-04-25 08:46 37.59803 -112.35116 24890 ft 222 kts 50°
2026-04-25 08:47 37.60647 -112.33490 24909 ft 222 kts 50°
2026-04-25 08:47 37.61494 -112.31858 24918 ft 222 kts 50°
2026-04-25 08:47 37.62335 -112.30225 24930 ft 221 kts 50°
2026-04-25 08:47 37.63175 -112.28607 24944 ft 220 kts 50°
2026-04-25 08:48 37.63983 -112.26952 24975 ft 221 kts 52°
2026-04-25 08:48 37.64788 -112.25320 24972 ft 221 kts 51°
2026-04-25 08:48 37.65605 -112.23671 24984 ft 221 kts 51°
2026-04-25 08:48 37.66412 -112.22019 24985 ft 221 kts 52°
2026-04-25 08:49 37.67218 -112.20364 24979 ft 221 kts 52°
2026-04-25 08:49 37.68022 -112.18711 24979 ft 221 kts 52°
2026-04-25 08:49 37.68828 -112.17055 24980 ft 221 kts 52°
2026-04-25 08:49 37.69630 -112.15406 24978 ft 220 kts 52°
2026-04-25 08:50 37.70433 -112.13755 24983 ft 220 kts 52°
2026-04-25 08:50 37.71235 -112.12106 24988 ft 220 kts 52°
2026-04-25 08:50 37.72035 -112.10457 24986 ft 220 kts 52°
2026-04-25 08:50 37.72837 -112.08808 24990 ft 220 kts 52°
2026-04-25 08:51 37.73639 -112.07156 24984 ft 221 kts 52°
2026-04-25 08:51 37.74431 -112.05523 24986 ft 221 kts 52°
2026-04-25 08:51 37.75234 -112.03868 24980 ft 221 kts 52°
2026-04-25 08:51 37.76037 -112.02209 24963 ft 221 kts 52°
2026-04-25 08:52 37.76841 -112.00550 24953 ft 221 kts 52°
2026-04-25 08:52 37.77643 -111.98893 24938 ft 221 kts 52°
2026-04-25 08:52 37.78445 -111.97235 24925 ft 221 kts 52°
2026-04-25 08:52 37.79247 -111.95579 24910 ft 221 kts 52°
2026-04-25 08:53 37.80049 -111.93919 24898 ft 221 kts 52°
2026-04-25 08:53 37.80851 -111.92259 24885 ft 222 kts 52°
2026-04-25 08:53 37.81656 -111.90592 24865 ft 222 kts 52°
2026-04-25 08:53 37.82460 -111.88925 24851 ft 222 kts 52°
2026-04-25 08:54 37.83266 -111.87256 24830 ft 222 kts 52°
2026-04-25 08:54 37.84066 -111.85597 24819 ft 220 kts 52°
2026-04-25 08:54 37.84865 -111.83940 24805 ft 221 kts 52°
2026-04-25 08:54 37.85662 -111.82284 24788 ft 220 kts 52°
2026-04-25 08:55 37.86455 -111.80637 24776 ft 219 kts 52°
2026-04-25 08:55 37.87247 -111.78993 24779 ft 218 kts 53°
2026-04-25 08:55 37.88038 -111.77347 24756 ft 219 kts 53°
2026-04-25 08:55 37.88830 -111.75696 24743 ft 219 kts 53°
2026-04-25 08:56 37.89626 -111.74046 24739 ft 220 kts 53°
2026-04-25 08:56 37.90409 -111.72413 24739 ft 220 kts 53°
2026-04-25 08:56 37.91200 -111.70760 24738 ft 219 kts 53°
2026-04-25 08:56 37.91991 -111.69111 24738 ft 218 kts 53°
2026-04-25 08:57 37.92780 -111.67468 24737 ft 218 kts 53°
2026-04-25 08:57 37.93568 -111.65825 24741 ft 219 kts 53°
2026-04-25 08:57 37.94357 -111.64177 24732 ft 218 kts 53°
2026-04-25 08:57 37.95148 -111.62528 24738 ft 220 kts 53°
2026-04-25 08:58 37.95939 -111.60870 24736 ft 220 kts 53°
2026-04-25 08:58 37.96731 -111.59215 24733 ft 220 kts 53°
2026-04-25 08:58 37.97524 -111.57561 24736 ft 219 kts 53°
2026-04-25 08:58 37.98316 -111.55903 24734 ft 220 kts 53°
2026-04-25 08:59 37.99108 -111.54241 24734 ft 220 kts 53°
2026-04-25 08:59 37.99900 -111.52581 24723 ft 220 kts 53°
2026-04-25 08:59 38.00691 -111.50923 24721 ft 219 kts 53°
2026-04-25 08:59 38.01482 -111.49266 24729 ft 219 kts 53°
2026-04-25 09:00 38.02269 -111.47613 24731 ft 219 kts 53°
2026-04-25 09:00 38.03056 -111.45959 24729 ft 219 kts 53°
2026-04-25 09:00 38.03845 -111.44307 24732 ft 219 kts 53°
2026-04-25 09:00 38.04634 -111.42650 24732 ft 220 kts 53°
2026-04-25 09:01 38.05425 -111.40986 24734 ft 221 kts 53°
2026-04-25 09:01 38.06207 -111.39340 24720 ft 221 kts 53°
2026-04-25 09:01 38.07000 -111.37673 24719 ft 220 kts 53°
2026-04-25 09:01 38.07791 -111.36008 24718 ft 220 kts 53°
2026-04-25 09:02 38.08578 -111.34344 24719 ft 219 kts 53°
2026-04-25 09:02 38.09364 -111.32687 24718 ft 219 kts 53°
2026-04-25 09:02 38.10149 -111.31032 24719 ft 219 kts 53°
2026-04-25 09:02 38.10934 -111.29379 24719 ft 218 kts 53°
2026-04-25 09:03 38.11718 -111.27723 24719 ft 219 kts 53°
2026-04-25 09:03 38.12502 -111.26068 24705 ft 219 kts 53°
2026-04-25 09:03 38.13286 -111.24411 24705 ft 219 kts 53°
2026-04-25 09:03 38.14070 -111.22753 24706 ft 219 kts 53°
2026-04-25 09:04 38.14854 -111.21094 24708 ft 219 kts 53°
2026-04-25 09:04 38.15630 -111.19452 24704 ft 220 kts 53°
2026-04-25 09:04 38.16416 -111.17786 24704 ft 219 kts 53°
2026-04-25 09:04 38.17201 -111.16124 24705 ft 220 kts 53°
2026-04-25 09:05 38.17987 -111.14456 24713 ft 220 kts 54°
2026-04-25 09:05 38.18775 -111.12783 24691 ft 221 kts 53°
2026-04-25 09:05 38.19565 -111.11113 24693 ft 220 kts 54°
2026-04-25 09:05 38.20351 -111.09445 24693 ft 220 kts 54°
2026-04-25 09:06 38.21135 -111.07778 24694 ft 219 kts 54°
2026-04-25 09:06 38.21917 -111.06113 24703 ft 219 kts 54°
2026-04-25 09:06 38.22700 -111.04449 24710 ft 219 kts 54°
2026-04-25 09:06 38.23482 -111.02785 24721 ft 219 kts 54°
2026-04-25 09:07 38.24264 -111.01121 24692 ft 219 kts 54°
2026-04-25 09:07 38.25047 -110.99452 24685 ft 219 kts 54°
2026-04-25 09:07 38.25828 -110.97790 24684 ft 219 kts 54°
2026-04-25 09:07 38.26607 -110.96129 24684 ft 219 kts 54°
2026-04-25 09:08 38.27386 -110.94469 24686 ft 219 kts 54°
2026-04-25 09:08 38.28165 -110.92806 24685 ft 219 kts 54°
2026-04-25 09:08 38.28946 -110.91137 24686 ft 219 kts 54°
2026-04-25 09:08 38.29726 -110.89472 24687 ft 219 kts 54°
2026-04-25 09:09 38.30506 -110.87805 24685 ft 219 kts 54°
2026-04-25 09:09 38.31286 -110.86137 24687 ft 219 kts 54°
2026-04-25 09:09 38.32056 -110.84490 24687 ft 219 kts 54°
2026-04-25 09:09 38.32836 -110.82819 24685 ft 219 kts 54°
2026-04-25 09:10 38.33615 -110.81150 24682 ft 219 kts 54°
2026-04-25 09:10 38.34394 -110.79481 24680 ft 219 kts 54°
2026-04-25 09:10 38.35172 -110.77813 24682 ft 219 kts 54°
2026-04-25 09:10 38.35950 -110.76144 24681 ft 219 kts 54°
2026-04-25 09:11 38.37503 -110.72810 24690 ft 218 kts 54°
2026-04-25 09:11 38.38276 -110.71148 24682 ft 217 kts 54°
2026-04-25 09:11 38.39045 -110.69496 24682 ft 217 kts 54°
2026-04-25 09:12 38.39813 -110.67844 24684 ft 216 kts 54°
2026-04-25 09:12 38.40579 -110.66196 24685 ft 216 kts 54°
2026-04-25 09:12 38.41346 -110.64546 24685 ft 216 kts 54°
2026-04-25 09:12 38.42112 -110.62896 24684 ft 216 kts 54°
2026-04-25 09:13 38.42877 -110.61248 24687 ft 216 kts 54°
2026-04-25 09:13 38.43641 -110.59600 24685 ft 216 kts 54°
2026-04-25 09:13 38.44395 -110.57972 24684 ft 215 kts 54°
2026-04-25 09:13 38.45157 -110.56328 24684 ft 215 kts 54°
2026-04-25 09:14 38.45920 -110.54681 24684 ft 215 kts 54°
2026-04-25 09:14 38.46682 -110.53035 24684 ft 215 kts 54°
2026-04-25 09:14 38.47442 -110.51391 24685 ft 215 kts 54°
2026-04-25 09:14 38.48204 -110.49743 24684 ft 215 kts 54°
2026-04-25 09:15 38.48965 -110.48096 24684 ft 216 kts 54°
2026-04-25 09:15 38.49725 -110.46450 24685 ft 216 kts 54°
2026-04-25 09:15 38.50486 -110.44802 24679 ft 215 kts 54°
2026-04-25 09:15 38.51243 -110.43161 24676 ft 214 kts 54°
2026-04-25 09:16 38.51998 -110.41524 24680 ft 214 kts 54°
2026-04-25 09:16 38.52752 -110.39889 24680 ft 213 kts 54°
2026-04-25 09:16 38.53504 -110.38256 24677 ft 213 kts 54°
2026-04-25 09:16 38.54255 -110.36626 24677 ft 213 kts 54°
2026-04-25 09:17 38.55756 -110.33364 24678 ft 213 kts 54°
2026-04-25 09:17 38.56506 -110.31732 24681 ft 213 kts 54°
2026-04-25 09:17 38.57003 -110.30651 24674 ft 213 kts 54°
2026-04-25 09:18 38.57752 -110.29020 24675 ft 213 kts 54°
2026-04-25 09:18 38.58501 -110.27388 24676 ft 213 kts 54°
2026-04-25 09:18 38.59249 -110.25759 24676 ft 212 kts 55°
2026-04-25 09:18 38.59997 -110.24129 24676 ft 212 kts 54°
2026-04-25 09:19 38.60744 -110.22499 24675 ft 212 kts 55°
2026-04-25 09:19 38.61490 -110.20870 24677 ft 212 kts 55°
2026-04-25 09:19 38.62236 -110.19242 24677 ft 212 kts 55°
2026-04-25 09:19 38.62982 -110.17611 24676 ft 212 kts 55°
2026-04-25 09:20 38.63728 -110.15982 24670 ft 212 kts 55°
2026-04-25 09:20 38.64475 -110.14349 24671 ft 212 kts 55°
2026-04-25 09:20 38.65220 -110.12717 24679 ft 213 kts 55°
2026-04-25 09:20 38.65959 -110.11100 24671 ft 213 kts 55°
2026-04-25 09:21 38.66706 -110.09463 24665 ft 213 kts 55°
2026-04-25 09:21 38.67447 -110.07830 24719 ft 212 kts 55°
2026-04-25 09:21 38.68195 -110.06203 24723 ft 212 kts 55°
2026-04-25 09:21 38.68943 -110.04577 24738 ft 212 kts 55°
2026-04-25 09:22 38.69684 -110.02943 24738 ft 213 kts 56°
2026-04-25 09:22 38.70426 -110.01298 24745 ft 213 kts 55°
2026-04-25 09:22 38.71172 -109.99657 24748 ft 214 kts 55°
2026-04-25 09:22 38.71922 -109.98012 24762 ft 214 kts 55°
2026-04-25 09:23 38.72672 -109.96366 24770 ft 214 kts 55°
2026-04-25 09:23 38.73422 -109.94716 24774 ft 214 kts 55°
2026-04-25 09:23 38.74173 -109.93062 24777 ft 215 kts 56°
2026-04-25 09:23 38.74925 -109.91406 24779 ft 215 kts 56°
2026-04-25 09:24 38.75674 -109.89754 24789 ft 214 kts 56°
2026-04-25 09:24 38.76413 -109.88124 24790 ft 214 kts 56°
2026-04-25 09:24 38.77162 -109.86473 24794 ft 214 kts 56°
2026-04-25 09:24 38.77908 -109.84825 24796 ft 214 kts 56°
2026-04-25 09:25 38.78665 -109.83155 24795 ft 214 kts 56°
2026-04-25 09:25 38.79401 -109.81528 24795 ft 214 kts 56°
2026-04-25 09:25 38.80147 -109.79879 24797 ft 214 kts 56°
2026-04-25 09:25 38.80893 -109.78227 24800 ft 214 kts 56°
2026-04-25 09:26 38.81639 -109.76577 24802 ft 214 kts 56°
2026-04-25 09:26 38.82384 -109.74928 24803 ft 214 kts 56°
2026-04-25 09:26 38.83131 -109.73272 24799 ft 214 kts 56°
2026-04-25 09:26 38.83877 -109.71620 24802 ft 214 kts 56°
2026-04-25 09:27 38.84622 -109.69967 24796 ft 214 kts 56°
2026-04-25 09:27 38.85367 -109.68313 24673 ft 214 kts 56°
2026-04-25 09:27 38.86111 -109.66663 24674 ft 214 kts 56°
2026-04-25 09:27 38.86853 -109.65014 24673 ft 214 kts 56°
2026-04-25 09:28 38.87597 -109.63360 24672 ft 213 kts 56°
2026-04-25 09:28 38.88339 -109.61711 24672 ft 213 kts 56°
2026-04-25 09:28 38.89081 -109.60061 24672 ft 213 kts 56°
2026-04-25 09:28 38.89822 -109.58411 24673 ft 213 kts 56°
2026-04-25 09:29 38.90563 -109.56762 24670 ft 213 kts 56°
2026-04-25 09:29 38.91305 -109.55109 24669 ft 213 kts 56°
2026-04-25 09:29 38.92044 -109.53461 24669 ft 213 kts 56°
2026-04-25 09:29 38.92785 -109.51809 24667 ft 213 kts 56°
2026-04-25 09:30 38.93523 -109.50161 24666 ft 213 kts 56°
2026-04-25 09:30 38.94262 -109.48510 24667 ft 213 kts 56°
2026-04-25 09:30 38.94993 -109.46879 24668 ft 213 kts 56°
2026-04-25 09:30 38.95732 -109.45226 24669 ft 213 kts 56°
2026-04-25 09:31 38.96470 -109.43575 24671 ft 213 kts 57°
2026-04-25 09:31 38.97207 -109.41926 24672 ft 213 kts 57°
2026-04-25 09:31 38.97944 -109.40276 24670 ft 213 kts 57°
2026-04-25 09:31 38.98681 -109.38627 24667 ft 213 kts 57°
2026-04-25 09:32 38.99416 -109.36979 24669 ft 213 kts 57°
2026-04-25 09:32 39.00151 -109.35330 24669 ft 213 kts 57°
2026-04-25 09:32 39.00886 -109.33682 24668 ft 213 kts 57°
2026-04-25 09:32 39.01622 -109.32030 24669 ft 213 kts 57°
2026-04-25 09:33 39.02357 -109.30380 24666 ft 213 kts 57°
2026-04-25 09:33 39.03092 -109.28728 24666 ft 213 kts 57°
2026-04-25 09:33 39.03827 -109.27075 24667 ft 213 kts 57°
2026-04-25 09:33 39.04563 -109.25421 24666 ft 213 kts 57°
2026-04-25 09:34 39.05297 -109.23767 24665 ft 213 kts 57°
2026-04-25 09:34 39.06032 -109.22115 24665 ft 213 kts 57°
2026-04-25 09:34 39.06766 -109.20460 24667 ft 213 kts 57°
2026-04-25 09:34 39.07502 -109.18801 24667 ft 213 kts 57°
2026-04-25 09:35 39.08237 -109.17143 24666 ft 213 kts 57°
2026-04-25 09:35 39.08972 -109.15486 24666 ft 213 kts 57°
2026-04-25 09:35 39.09706 -109.13828 24665 ft 213 kts 57°
2026-04-25 09:35 39.10441 -109.12169 24668 ft 214 kts 57°
2026-04-25 09:36 39.11179 -109.10501 24664 ft 214 kts 57°
2026-04-25 09:36 39.11915 -109.08837 24667 ft 214 kts 57°
2026-04-25 09:36 39.12651 -109.07172 24666 ft 214 kts 57°
2026-04-25 09:36 39.13377 -109.05527 24665 ft 214 kts 57°
2026-04-25 09:37 39.14115 -109.03858 24662 ft 214 kts 57°
2026-04-25 09:37 39.14851 -109.02188 24665 ft 214 kts 57°
2026-04-25 09:37 39.15587 -109.00521 24665 ft 214 kts 57°
2026-04-25 09:37 39.16324 -108.98848 24664 ft 214 kts 57°
2026-04-25 09:38 39.17059 -108.97183 24667 ft 214 kts 57°
2026-04-25 09:38 39.17790 -108.95520 24666 ft 213 kts 57°
2026-04-25 09:38 39.18521 -108.93858 24665 ft 213 kts 57°
2026-04-25 09:38 39.19249 -108.92201 24665 ft 212 kts 57°
2026-04-25 09:39 39.19979 -108.90542 24664 ft 212 kts 57°
2026-04-25 09:39 39.20710 -108.88884 24662 ft 213 kts 57°
2026-04-25 09:39 39.21431 -108.87241 24662 ft 213 kts 57°
2026-04-25 09:40 39.22891 -108.83912 24664 ft 213 kts 57°
2026-04-25 09:40 39.23622 -108.82246 24663 ft 213 kts 57°
2026-04-25 09:40 39.24352 -108.80581 24663 ft 213 kts 57°
2026-04-25 09:40 39.25082 -108.78913 24663 ft 213 kts 57°
2026-04-25 09:41 39.25812 -108.77245 24661 ft 214 kts 58°
2026-04-25 09:41 39.26545 -108.75572 24663 ft 215 kts 57°
2026-04-25 09:41 39.27280 -108.73892 24737 ft 215 kts 58°
2026-04-25 09:41 39.28015 -108.72210 24740 ft 215 kts 58°
2026-04-25 09:42 39.28751 -108.70526 24742 ft 216 kts 58°
2026-04-25 09:42 39.29488 -108.68837 24742 ft 216 kts 58°
2026-04-25 09:42 39.30226 -108.67145 24744 ft 216 kts 58°
2026-04-25 09:42 39.30955 -108.65474 24745 ft 216 kts 58°
2026-04-25 09:43 39.31695 -108.63777 24746 ft 217 kts 58°
2026-04-25 09:43 39.32433 -108.62082 24743 ft 217 kts 58°
2026-04-25 09:43 39.33174 -108.60382 24740 ft 218 kts 58°
2026-04-25 09:43 39.33917 -108.58676 24735 ft 218 kts 58°
2026-04-25 09:44 39.34657 -108.56973 24731 ft 217 kts 58°
2026-04-25 09:44 39.35395 -108.55276 24731 ft 217 kts 58°
2026-04-25 09:44 39.36135 -108.53573 24726 ft 217 kts 58°
2026-04-25 09:44 39.36876 -108.51866 24722 ft 217 kts 58°
2026-04-25 09:45 39.37615 -108.50164 24661 ft 217 kts 58°
2026-04-25 09:45 39.38354 -108.48460 24662 ft 217 kts 58°
2026-04-25 09:45 39.39093 -108.46755 24662 ft 217 kts 58°
2026-04-25 09:45 39.39833 -108.45047 24658 ft 217 kts 58°
2026-04-25 09:46 39.40574 -108.43343 24658 ft 217 kts 57°
2026-04-25 09:46 39.41309 -108.41646 24669 ft 215 kts 58°
2026-04-25 09:46 39.42038 -108.39950 24672 ft 217 kts 58°
2026-04-25 09:46 39.42774 -108.38245 24674 ft 217 kts 58°
2026-04-25 09:47 39.43516 -108.36531 24670 ft 218 kts 58°
2026-04-25 09:47 39.44258 -108.34815 24668 ft 219 kts 59°
2026-04-25 09:47 39.45001 -108.33095 24667 ft 219 kts 59°
2026-04-25 09:47 39.45743 -108.31374 24668 ft 219 kts 59°
2026-04-25 09:48 39.46486 -108.29652 24670 ft 220 kts 59°
2026-04-25 09:48 39.47232 -108.27921 24673 ft 221 kts 59°
2026-04-25 09:48 39.47981 -108.26179 24650 ft 220 kts 59°
2026-04-25 09:48 39.48706 -108.24482 24669 ft 218 kts 59°
2026-04-25 09:49 39.49455 -108.22759 24664 ft 220 kts 59°
2026-04-25 09:49 39.50201 -108.21032 24661 ft 219 kts 59°
2026-04-25 09:49 39.50944 -108.19301 24663 ft 220 kts 59°
2026-04-25 09:49 39.51684 -108.17570 24664 ft 220 kts 59°
2026-04-25 09:50 39.52427 -108.15837 24670 ft 220 kts 59°
2026-04-25 09:50 39.53171 -108.14104 24663 ft 220 kts 59°
2026-04-25 09:50 39.53911 -108.12379 24668 ft 219 kts 59°
2026-04-25 09:50 39.54652 -108.10651 24674 ft 220 kts 59°
2026-04-25 09:51 39.55401 -108.08901 24674 ft 222 kts 59°
2026-04-25 09:51 39.56151 -108.07149 24675 ft 222 kts 59°
2026-04-25 09:51 39.56899 -108.05399 24673 ft 222 kts 59°
2026-04-25 09:51 39.57644 -108.03654 24671 ft 221 kts 59°
2026-04-25 09:52 39.58389 -108.01917 24681 ft 221 kts 59°
2026-04-25 09:52 39.59133 -108.00178 24683 ft 221 kts 59°
2026-04-25 09:52 39.59866 -107.98458 24680 ft 221 kts 59°
2026-04-25 09:52 39.60608 -107.96716 24680 ft 221 kts 59°
2026-04-25 09:53 39.61351 -107.94976 24682 ft 221 kts 59°
2026-04-25 09:53 39.62093 -107.93231 24682 ft 221 kts 59°
2026-04-25 09:53 39.62836 -107.91484 24681 ft 221 kts 59°
2026-04-25 09:53 39.63575 -107.89747 24682 ft 219 kts 59°
2026-04-25 09:54 39.64311 -107.88023 24686 ft 218 kts 59°
2026-04-25 09:54 39.65048 -107.86292 24690 ft 219 kts 59°
2026-04-25 09:54 39.65785 -107.84556 24680 ft 219 kts 59°
2026-04-25 09:54 39.66520 -107.82825 24686 ft 219 kts 59°
2026-04-25 09:55 39.67255 -107.81094 24788 ft 219 kts 59°
2026-04-25 09:55 39.67990 -107.79359 24784 ft 220 kts 59°
2026-04-25 09:55 39.68724 -107.77626 24785 ft 219 kts 59°
2026-04-25 09:55 39.69461 -107.75888 24787 ft 220 kts 59°
2026-04-25 09:56 39.70197 -107.74144 24786 ft 220 kts 59°
2026-04-25 09:56 39.70938 -107.72396 24783 ft 221 kts 59°
2026-04-25 09:56 39.71681 -107.70644 24777 ft 221 kts 59°
2026-04-25 09:56 39.72411 -107.68918 24783 ft 220 kts 59°
2026-04-25 09:57 39.73147 -107.67178 24785 ft 220 kts 59°
2026-04-25 09:57 39.73887 -107.65423 24779 ft 222 kts 59°
2026-04-25 09:57 39.74627 -107.63666 24770 ft 221 kts 59°
2026-04-25 09:57 39.75369 -107.61915 24761 ft 221 kts 59°
2026-04-25 09:58 39.76109 -107.60161 24761 ft 222 kts 59°
2026-04-25 09:58 39.76844 -107.58405 24754 ft 221 kts 59°
2026-04-25 09:58 39.77584 -107.56649 24747 ft 222 kts 59°
2026-04-25 09:58 39.78326 -107.54888 24741 ft 222 kts 59°
2026-04-25 09:59 39.79068 -107.53123 24730 ft 223 kts 59°
2026-04-25 09:59 39.79813 -107.51355 24727 ft 223 kts 59°
2026-04-25 09:59 39.80557 -107.49580 24719 ft 223 kts 59°
2026-04-25 09:59 39.81302 -107.47806 24712 ft 224 kts 59°
2026-04-25 10:00 39.82049 -107.46028 24719 ft 224 kts 59°
2026-04-25 10:00 39.82795 -107.44248 24718 ft 224 kts 59°
2026-04-25 10:00 39.83541 -107.42469 24719 ft 224 kts 59°
2026-04-25 10:00 39.84284 -107.40695 24712 ft 223 kts 59°
2026-04-25 10:01 39.85028 -107.38919 24719 ft 224 kts 59°
2026-04-25 10:01 39.85775 -107.37130 24717 ft 224 kts 59°
2026-04-25 10:01 39.86522 -107.35346 24719 ft 224 kts 59°
2026-04-25 10:01 39.87266 -107.33565 24714 ft 224 kts 59°
2026-04-25 10:02 39.88007 -107.31792 24733 ft 222 kts 59°
2026-04-25 10:02 39.88748 -107.30019 24730 ft 223 kts 59°
2026-04-25 10:02 39.89490 -107.28240 24731 ft 224 kts 59°
2026-04-25 10:02 39.90231 -107.26463 24730 ft 223 kts 59°
2026-04-25 10:03 39.90722 -107.25283 24738 ft 224 kts 59°
2026-04-25 10:03 39.91711 -107.22908 24735 ft 225 kts 59°
2026-04-25 10:03 39.92458 -107.21113 24737 ft 225 kts 59°
2026-04-25 10:03 39.92963 -107.19900 24737 ft 226 kts 59°
2026-04-25 10:04 39.93956 -107.17513 24742 ft 226 kts 59°
2026-04-25 10:04 39.94461 -107.16296 24743 ft 226 kts 59°
2026-04-25 10:04 39.95206 -107.14504 24744 ft 224 kts 59°
2026-04-25 10:04 39.95949 -107.12715 24743 ft 225 kts 59°
2026-04-25 10:05 39.96691 -107.10923 24746 ft 225 kts 59°
2026-04-25 10:05 39.97433 -107.09133 24744 ft 224 kts 59°
2026-04-25 10:05 39.98176 -107.07342 24747 ft 225 kts 59°
2026-04-25 10:05 39.98920 -107.05546 24755 ft 226 kts 59°
2026-04-25 10:06 39.99655 -107.03769 24745 ft 224 kts 60°
2026-04-25 10:06 40.00396 -107.01979 24746 ft 223 kts 60°
2026-04-25 10:06 40.01131 -107.00200 24748 ft 222 kts 60°
2026-04-25 10:06 40.01865 -106.98421 24745 ft 222 kts 60°
2026-04-25 10:07 40.02596 -106.96651 24748 ft 221 kts 60°
2026-04-25 10:07 40.03325 -106.94885 24747 ft 221 kts 60°
2026-04-25 10:07 40.04054 -106.93118 24746 ft 221 kts 60°
2026-04-25 10:07 40.04783 -106.91350 24747 ft 221 kts 60°
2026-04-25 10:08 40.05510 -106.89585 24743 ft 221 kts 60°
2026-04-25 10:08 40.06237 -106.87818 24744 ft 221 kts 60°
2026-04-25 10:08 40.06964 -106.86051 24743 ft 221 kts 60°
2026-04-25 10:08 40.07692 -106.84282 24742 ft 221 kts 60°
2026-04-25 10:09 40.08418 -106.82514 24744 ft 221 kts 60°
2026-04-25 10:09 40.09147 -106.80741 24745 ft 222 kts 60°
2026-04-25 10:09 40.09877 -106.78962 24743 ft 222 kts 60°
2026-04-25 10:09 40.10605 -106.77187 24743 ft 222 kts 60°
2026-04-25 10:10 40.11335 -106.75407 24739 ft 222 kts 60°
2026-04-25 10:10 40.12064 -106.73629 24740 ft 222 kts 60°
2026-04-25 10:10 40.12793 -106.71846 24743 ft 222 kts 60°
2026-04-25 10:10 40.13509 -106.70098 24747 ft 221 kts 60°
2026-04-25 10:11 40.14239 -106.68318 24751 ft 223 kts 60°
2026-04-25 10:11 40.14970 -106.66524 24750 ft 224 kts 60°
2026-04-25 10:11 40.15704 -106.64731 24748 ft 224 kts 60°
2026-04-25 10:11 40.16436 -106.62939 24751 ft 224 kts 60°
2026-04-25 10:12 40.17168 -106.61144 24741 ft 223 kts 60°
2026-04-25 10:12 40.17898 -106.59352 24742 ft 223 kts 60°
2026-04-25 10:12 40.19360 -106.55765 24741 ft 222 kts 60°
2026-04-25 10:13 40.20077 -106.54005 24741 ft 222 kts 60°
2026-04-25 10:13 40.20803 -106.52221 24745 ft 223 kts 60°
2026-04-25 10:13 40.21530 -106.50433 24742 ft 222 kts 60°
2026-04-25 10:13 40.22255 -106.48648 24738 ft 222 kts 60°
2026-04-25 10:14 40.22979 -106.46865 24742 ft 222 kts 60°
2026-04-25 10:14 40.23705 -106.45077 24740 ft 222 kts 60°
2026-04-25 10:14 40.24430 -106.43290 24742 ft 223 kts 60°
2026-04-25 10:14 40.25157 -106.41497 24742 ft 223 kts 60°
2026-04-25 10:15 40.25885 -106.39700 24740 ft 224 kts 60°
2026-04-25 10:15 40.26615 -106.37897 24739 ft 223 kts 60°
2026-04-25 10:15 40.27342 -106.36101 24740 ft 224 kts 60°
2026-04-25 10:15 40.28072 -106.34296 24739 ft 225 kts 60°
2026-04-25 10:16 40.28806 -106.32480 24741 ft 226 kts 59°
2026-04-25 10:16 40.29543 -106.30657 24736 ft 226 kts 60°
2026-04-25 10:16 40.30279 -106.28835 24740 ft 226 kts 60°
2026-04-25 10:16 40.31014 -106.27012 24741 ft 226 kts 60°
2026-04-25 10:17 40.31749 -106.25189 24741 ft 227 kts 60°
2026-04-25 10:17 40.32487 -106.23358 24740 ft 228 kts 60°
2026-04-25 10:17 40.33228 -106.21517 24733 ft 227 kts 60°
2026-04-25 10:17 40.33964 -106.19689 24729 ft 227 kts 60°
2026-04-25 10:18 40.34702 -106.17854 24737 ft 228 kts 60°
2026-04-25 10:18 40.35441 -106.16016 24728 ft 227 kts 60°
2026-04-25 10:18 40.36173 -106.14192 24728 ft 226 kts 60°
2026-04-25 10:18 40.36905 -106.12369 24728 ft 225 kts 60°
2026-04-25 10:19 40.37636 -106.10551 24730 ft 225 kts 60°
2026-04-25 10:19 40.38366 -106.08730 24729 ft 225 kts 60°
2026-04-25 10:19 40.39096 -106.06908 24731 ft 226 kts 60°
2026-04-25 10:19 40.39818 -106.05108 24726 ft 226 kts 60°
2026-04-25 10:20 40.40556 -106.03264 24725 ft 226 kts 60°
2026-04-25 10:20 40.41277 -106.01459 24724 ft 226 kts 60°
2026-04-25 10:20 40.42007 -105.99628 24722 ft 226 kts 60°
2026-04-25 10:20 40.42731 -105.97800 24725 ft 227 kts 59°
2026-04-25 10:21 40.43467 -105.95976 24723 ft 225 kts 59°
2026-04-25 10:21 40.44197 -105.94161 24730 ft 225 kts 59°
2026-04-25 10:21 40.44935 -105.92308 24729 ft 226 kts 60°
2026-04-25 10:21 40.45651 -105.90500 24747 ft 226 kts 59°
2026-04-25 10:22 40.46386 -105.88660 24725 ft 228 kts 59°
2026-04-25 10:22 40.47122 -105.86815 24720 ft 227 kts 60°
2026-04-25 10:22 40.47852 -105.84975 24720 ft 227 kts 60°
2026-04-25 10:22 40.48582 -105.83138 24722 ft 227 kts 59°
2026-04-25 10:23 40.49323 -105.81275 24721 ft 227 kts 60°
2026-04-25 10:23 40.50052 -105.79439 24721 ft 226 kts 60°
2026-04-25 10:23 40.50780 -105.77605 24745 ft 226 kts 60°
2026-04-25 10:23 40.51497 -105.75797 24744 ft 226 kts 59°
2026-04-25 10:24 40.52224 -105.73963 24754 ft 226 kts 60°
2026-04-25 10:24 40.52952 -105.72127 24754 ft 227 kts 60°
2026-04-25 10:24 40.53693 -105.70253 24750 ft 228 kts 60°
2026-04-25 10:24 40.54426 -105.68403 24755 ft 229 kts 60°
2026-04-25 10:25 40.55147 -105.66575 24750 ft 228 kts 60°
2026-04-25 10:25 40.55872 -105.64741 24756 ft 224 kts 59°
2026-04-25 10:25 40.56589 -105.62921 24799 ft 222 kts 60°
2026-04-25 10:25 40.57303 -105.61119 24804 ft 222 kts 60°
2026-04-25 10:26 40.58016 -105.59311 24804 ft 223 kts 60°
2026-04-25 10:26 40.58732 -105.57495 24804 ft 224 kts 60°
2026-04-25 10:26 40.59448 -105.55677 24805 ft 224 kts 60°
2026-04-25 10:26 40.60166 -105.53854 24805 ft 224 kts 60°
2026-04-25 10:27 40.60881 -105.52032 24809 ft 225 kts 60°
2026-04-25 10:27 40.61604 -105.50195 24811 ft 226 kts 60°
2026-04-25 10:27 40.62327 -105.48358 24856 ft 226 kts 60°
2026-04-25 10:27 40.63049 -105.46519 24854 ft 226 kts 60°
2026-04-25 10:28 40.63770 -105.44682 24856 ft 226 kts 60°
2026-04-25 10:28 40.64492 -105.42840 24857 ft 226 kts 60°
2026-04-25 10:28 40.65213 -105.41002 24862 ft 226 kts 60°
2026-04-25 10:28 40.65933 -105.39163 24867 ft 226 kts 60°
2026-04-25 10:29 40.66653 -105.37325 24874 ft 226 kts 60°
2026-04-25 10:29 40.67374 -105.35483 24900 ft 226 kts 60°
2026-04-25 10:29 40.68093 -105.33645 24905 ft 226 kts 60°
2026-04-25 10:29 40.68812 -105.31804 24903 ft 226 kts 60°
2026-04-25 10:30 40.69531 -105.29962 24902 ft 226 kts 60°
2026-04-25 10:30 40.70007 -105.28742 24906 ft 226 kts 60°
2026-04-25 10:30 40.70970 -105.26275 24902 ft 227 kts 61°
2026-04-25 10:30 40.71690 -105.24430 24904 ft 226 kts 61°
2026-04-25 10:31 40.72408 -105.22585 24909 ft 226 kts 61°
2026-04-25 10:31 40.73129 -105.20734 24922 ft 227 kts 61°
2026-04-25 10:31 40.73850 -105.18879 24919 ft 227 kts 61°
2026-04-25 10:31 40.74572 -105.17024 24918 ft 227 kts 61°
2026-04-25 10:32 40.75296 -105.15161 24918 ft 228 kts 61°
2026-04-25 10:32 40.76016 -105.13307 24917 ft 227 kts 61°
2026-04-25 10:32 40.76726 -105.11477 24916 ft 227 kts 61°
2026-04-25 10:32 40.77456 -105.09595 24914 ft 227 kts 61°
2026-04-25 10:33 40.78176 -105.07737 24927 ft 227 kts 61°
2026-04-25 10:33 40.78888 -105.05897 24915 ft 228 kts 60°
2026-04-25 10:33 40.79624 -105.04002 24916 ft 229 kts 60°
2026-04-25 10:33 40.80338 -105.02158 24915 ft 229 kts 60°
2026-04-25 10:34 40.81061 -105.00285 24915 ft 229 kts 60°
2026-04-25 10:34 40.81785 -104.98412 24917 ft 229 kts 60°
2026-04-25 10:34 40.82510 -104.96535 24919 ft 229 kts 60°
2026-04-25 10:34 40.83244 -104.94631 24923 ft 230 kts 60°
2026-04-25 10:35 40.83969 -104.92751 24925 ft 230 kts 60°
2026-04-25 10:35 40.84683 -104.90900 24930 ft 229 kts 61°
2026-04-25 10:35 40.85406 -104.89022 24931 ft 229 kts 61°
2026-04-25 10:35 40.86129 -104.87144 24933 ft 229 kts 61°
2026-04-25 10:36 40.86851 -104.85266 24936 ft 230 kts 61°
2026-04-25 10:36 40.87575 -104.83384 24939 ft 230 kts 61°
2026-04-25 10:36 40.88300 -104.81497 24940 ft 230 kts 61°
2026-04-25 10:36 40.89024 -104.79612 24941 ft 230 kts 61°
2026-04-25 10:37 40.89749 -104.77723 24948 ft 230 kts 61°
2026-04-25 10:37 40.90472 -104.75837 24949 ft 230 kts 61°
2026-04-25 10:37 40.91195 -104.73948 24950 ft 230 kts 61°
2026-04-25 10:37 40.91919 -104.72058 24951 ft 230 kts 61°
2026-04-25 10:38 40.92643 -104.70167 24953 ft 230 kts 61°
2026-04-25 10:38 40.93366 -104.68276 24952 ft 231 kts 61°
2026-04-25 10:38 40.94090 -104.66381 24952 ft 231 kts 61°
2026-04-25 10:38 40.94813 -104.64490 24962 ft 230 kts 61°
2026-04-25 10:39 40.95536 -104.62597 24960 ft 230 kts 61°
2026-04-25 10:39 40.96257 -104.60706 24960 ft 230 kts 61°
2026-04-25 10:39 40.96978 -104.58815 24959 ft 230 kts 61°
2026-04-25 10:39 40.97697 -104.56927 24959 ft 230 kts 61°
2026-04-25 10:40 40.98408 -104.55059 24958 ft 230 kts 61°
2026-04-25 10:40 40.99128 -104.53167 24957 ft 230 kts 61°
2026-04-25 10:40 40.99614 -104.51890 24958 ft 230 kts 61°
2026-04-25 10:40 41.00332 -104.50000 24968 ft 230 kts 61°
2026-04-25 10:41 41.01284 -104.47493 24969 ft 230 kts 62°
2026-04-25 10:41 41.02002 -104.45601 24968 ft 230 kts 62°
2026-04-25 10:41 41.02723 -104.43701 24968 ft 230 kts 62°
2026-04-25 10:41 41.03440 -104.41809 24967 ft 230 kts 62°
2026-04-25 10:42 41.03924 -104.40531 24958 ft 230 kts 62°
2026-04-25 10:42 41.04641 -104.38637 24956 ft 230 kts 62°
2026-04-25 10:42 41.05357 -104.36744 24954 ft 230 kts 62°
2026-04-25 10:42 41.06074 -104.34848 24961 ft 230 kts 62°
2026-04-25 10:43 41.06790 -104.32955 24961 ft 230 kts 62°
2026-04-25 10:43 41.07504 -104.31063 24961 ft 230 kts 62°
2026-04-25 10:43 41.08219 -104.29169 24961 ft 230 kts 62°
2026-04-25 10:43 41.08933 -104.27275 24961 ft 230 kts 62°
2026-04-25 10:44 41.09647 -104.25381 24963 ft 230 kts 62°
2026-04-25 10:44 41.10363 -104.23479 24968 ft 232 kts 61°
2026-04-25 10:44 41.11085 -104.21564 24964 ft 232 kts 61°
2026-04-25 10:44 41.11806 -104.19647 24962 ft 232 kts 62°
2026-04-25 10:45 41.12527 -104.17727 24957 ft 233 kts 62°
2026-04-25 10:45 41.13249 -104.15805 24957 ft 233 kts 62°
2026-04-25 10:45 41.13972 -104.13879 24957 ft 233 kts 62°
2026-04-25 10:45 41.14694 -104.11955 24957 ft 233 kts 62°
2026-04-25 10:46 41.15415 -104.10031 24962 ft 233 kts 62°
2026-04-25 10:46 41.16137 -104.08104 24964 ft 233 kts 62°
2026-04-25 10:46 41.16859 -104.06174 24936 ft 234 kts 62°
2026-04-25 10:46 41.17581 -104.04244 24942 ft 233 kts 62°
2026-04-25 10:47 41.18303 -104.02314 24948 ft 233 kts 62°
2026-04-25 10:47 41.19025 -104.00383 24954 ft 233 kts 62°
2026-04-25 10:47 41.19746 -103.98450 24959 ft 233 kts 62°
2026-04-25 10:47 41.20466 -103.96521 24964 ft 233 kts 62°
2026-04-25 10:48 41.21187 -103.94589 24969 ft 233 kts 62°
2026-04-25 10:48 41.21906 -103.92659 24972 ft 233 kts 62°
2026-04-25 10:48 41.22624 -103.90730 24977 ft 233 kts 62°
2026-04-25 10:48 41.23344 -103.88797 24982 ft 233 kts 62°
2026-04-25 10:49 41.24062 -103.86865 24988 ft 233 kts 62°
2026-04-25 10:49 41.24781 -103.84933 24988 ft 233 kts 62°
2026-04-25 10:49 41.25500 -103.82995 24992 ft 233 kts 62°
2026-04-25 10:49 41.26210 -103.81081 24994 ft 233 kts 62°
2026-04-25 10:50 41.26929 -103.79144 24998 ft 233 kts 62°
2026-04-25 10:50 41.27645 -103.77213 25000 ft 233 kts 62°
2026-04-25 10:50 41.28362 -103.75277 25000 ft 233 kts 62°
2026-04-25 10:50 41.29079 -103.73341 25002 ft 233 kts 62°
2026-04-25 10:51 41.29794 -103.71406 25001 ft 233 kts 62°
2026-04-25 10:51 41.30509 -103.69472 24999 ft 233 kts 62°
2026-04-25 10:51 41.31224 -103.67538 24997 ft 233 kts 62°
2026-04-25 10:51 41.31938 -103.65602 24995 ft 233 kts 62°
2026-04-25 10:52 41.32652 -103.63668 24994 ft 233 kts 62°
2026-04-25 10:52 41.33365 -103.61734 24990 ft 233 kts 62°
2026-04-25 10:52 41.34078 -103.59799 24986 ft 233 kts 62°
2026-04-25 10:52 41.34791 -103.57862 24983 ft 233 kts 62°
2026-04-25 10:53 41.35504 -103.55925 24974 ft 233 kts 62°
2026-04-25 10:53 41.36216 -103.53987 24969 ft 233 kts 62°
2026-04-25 10:53 41.36928 -103.52050 24965 ft 233 kts 63°
2026-04-25 10:53 41.37640 -103.50111 24960 ft 233 kts 63°
2026-04-25 10:54 41.38341 -103.48200 24967 ft 232 kts 63°
2026-04-25 10:54 41.38821 -103.46892 24963 ft 232 kts 63°
2026-04-25 10:54 41.39758 -103.44334 24956 ft 232 kts 63°
2026-04-25 10:54 41.40466 -103.42400 24952 ft 232 kts 63°
2026-04-25 10:55 41.41174 -103.40466 24977 ft 232 kts 63°
2026-04-25 10:55 41.41884 -103.38523 24961 ft 234 kts 63°
2026-04-25 10:55 41.42598 -103.36572 24955 ft 234 kts 63°
2026-04-25 10:55 41.43312 -103.34618 24944 ft 235 kts 63°
2026-04-25 10:56 41.44026 -103.32661 24945 ft 235 kts 63°
2026-04-25 10:56 41.44741 -103.30699 24946 ft 235 kts 63°
2026-04-25 10:56 41.45457 -103.28733 24944 ft 236 kts 63°
2026-04-25 10:56 41.46174 -103.26766 24944 ft 236 kts 63°
2026-04-25 10:57 41.46890 -103.24799 24946 ft 236 kts 63°
2026-04-25 10:57 41.47606 -103.22829 24946 ft 236 kts 63°
2026-04-25 10:57 41.48322 -103.20861 24946 ft 236 kts 63°
2026-04-25 10:57 41.49036 -103.18894 24942 ft 236 kts 63°
2026-04-25 10:58 41.49751 -103.16924 24944 ft 236 kts 63°
2026-04-25 10:58 41.50455 -103.14982 24946 ft 236 kts 63°
2026-04-25 10:58 41.51170 -103.13009 24942 ft 236 kts 64°
2026-04-25 10:58 41.51891 -103.11017 24942 ft 235 kts 64°
2026-04-25 10:59 41.52604 -103.09051 24942 ft 235 kts 64°
2026-04-25 10:59 41.53313 -103.07091 24942 ft 235 kts 64°
2026-04-25 10:59 41.54013 -103.05156 24947 ft 235 kts 64°
2026-04-25 10:59 41.54721 -103.03194 24947 ft 234 kts 64°
2026-04-25 11:00 41.55429 -103.01232 24947 ft 234 kts 64°
2026-04-25 11:00 41.56135 -102.99272 24947 ft 234 kts 64°
2026-04-25 11:00 41.56842 -102.97314 24947 ft 234 kts 64°
2026-04-25 11:00 41.57549 -102.95352 24947 ft 234 kts 64°
2026-04-25 11:01 41.58254 -102.93393 24947 ft 234 kts 64°
2026-04-25 11:01 41.58959 -102.91432 24947 ft 234 kts 64°
2026-04-25 11:01 41.59663 -102.89473 24947 ft 234 kts 64°
2026-04-25 11:01 41.60369 -102.87510 24948 ft 234 kts 64°
2026-04-25 11:02 41.61073 -102.85547 24947 ft 234 kts 64°
2026-04-25 11:02 41.61778 -102.83583 24948 ft 235 kts 64°
2026-04-25 11:02 41.62482 -102.81619 24948 ft 235 kts 64°
2026-04-25 11:02 41.63188 -102.79647 24948 ft 235 kts 64°
2026-04-25 11:03 41.63893 -102.77678 24949 ft 235 kts 64°
2026-04-25 11:03 41.64597 -102.75708 24955 ft 235 kts 64°
2026-04-25 11:03 41.65303 -102.73736 24954 ft 235 kts 64°
2026-04-25 11:03 41.66008 -102.71761 24966 ft 235 kts 64°
2026-04-25 11:04 41.66713 -102.69785 24967 ft 235 kts 64°
2026-04-25 11:04 41.67419 -102.67808 24968 ft 235 kts 64°
2026-04-25 11:04 41.68123 -102.65833 24968 ft 235 kts 64°
2026-04-25 11:04 41.68589 -102.64526 24967 ft 235 kts 64°
2026-04-25 11:05 41.69530 -102.61880 24984 ft 235 kts 64°
2026-04-25 11:05 41.70234 -102.59903 24984 ft 235 kts 64°
2026-04-25 11:05 41.70936 -102.57926 24984 ft 235 kts 64°
2026-04-25 11:05 41.71639 -102.55949 24994 ft 235 kts 64°
2026-04-25 11:06 41.72342 -102.53967 24990 ft 236 kts 64°
2026-04-25 11:06 41.73048 -102.51978 24988 ft 237 kts 64°
2026-04-25 11:06 41.73753 -102.49988 24988 ft 237 kts 64°
2026-04-25 11:06 41.74459 -102.47997 24985 ft 237 kts 64°
2026-04-25 11:07 41.75163 -102.46006 24989 ft 237 kts 64°
2026-04-25 11:07 41.75869 -102.44012 24989 ft 237 kts 64°
2026-04-25 11:07 41.76574 -102.42017 24988 ft 237 kts 64°
2026-04-25 11:07 41.77277 -102.40027 24982 ft 237 kts 65°
2026-04-25 11:08 41.77982 -102.38031 24985 ft 237 kts 65°
2026-04-25 11:08 41.78688 -102.36027 24986 ft 238 kts 65°
2026-04-25 11:08 41.79396 -102.34019 24982 ft 238 kts 65°
2026-04-25 11:08 41.80103 -102.32010 24985 ft 238 kts 65°
2026-04-25 11:09 41.80811 -102.30000 24987 ft 239 kts 65°
2026-04-25 11:09 41.81519 -102.27987 24986 ft 239 kts 65°
2026-04-25 11:09 41.82226 -102.25975 24985 ft 239 kts 65°
2026-04-25 11:09 41.82933 -102.23962 24986 ft 239 kts 65°
2026-04-25 11:10 41.83641 -102.21947 24986 ft 239 kts 65°
2026-04-25 11:10 41.84108 -102.20614 24984 ft 239 kts 65°
2026-04-25 11:10 41.85056 -102.17910 24988 ft 239 kts 65°
2026-04-25 11:10 41.85762 -102.15895 24989 ft 239 kts 65°
2026-04-25 11:11 41.86467 -102.13878 24983 ft 239 kts 65°
2026-04-25 11:11 41.87172 -102.11862 24988 ft 239 kts 65°
2026-04-25 11:11 41.87877 -102.09844 24988 ft 239 kts 65°
2026-04-25 11:11 41.88582 -102.07827 24986 ft 239 kts 65°
2026-04-25 11:12 41.89277 -102.05836 24988 ft 239 kts 65°
2026-04-25 11:12 41.89980 -102.03819 24995 ft 238 kts 65°
2026-04-25 11:12 41.90682 -102.01803 25005 ft 238 kts 65°
2026-04-25 11:12 41.91385 -101.99785 25007 ft 238 kts 65°
2026-04-25 11:13 41.92087 -101.97768 25004 ft 239 kts 65°
2026-04-25 11:13 41.92788 -101.95749 25005 ft 239 kts 65°
2026-04-25 11:13 41.93490 -101.93730 25005 ft 239 kts 65°
2026-04-25 11:13 41.94193 -101.91706 25005 ft 239 kts 65°
2026-04-25 11:14 41.94895 -101.89683 25004 ft 239 kts 65°
2026-04-25 11:14 41.95596 -101.87660 25009 ft 239 kts 65°
2026-04-25 11:14 41.96297 -101.85636 25009 ft 239 kts 65°
2026-04-25 11:14 41.96997 -101.83614 25010 ft 239 kts 65°
2026-04-25 11:15 41.97696 -101.81594 25011 ft 239 kts 65°
2026-04-25 11:15 41.98396 -101.79569 25010 ft 239 kts 65°
2026-04-25 11:15 41.99095 -101.77545 25010 ft 239 kts 65°
2026-04-25 11:15 41.99793 -101.75521 25009 ft 239 kts 65°
2026-04-25 11:16 42.01183 -101.71492 25018 ft 239 kts 65°
2026-04-25 11:16 42.01880 -101.69468 25038 ft 240 kts 65°
2026-04-25 11:16 42.02580 -101.67434 25025 ft 240 kts 65°
2026-04-25 11:17 42.03280 -101.65399 25022 ft 240 kts 65°
2026-04-25 11:17 42.03979 -101.63364 25030 ft 240 kts 65°
2026-04-25 11:17 42.04678 -101.61329 25025 ft 240 kts 65°
2026-04-25 11:17 42.05387 -101.59262 25028 ft 240 kts 66°
2026-04-25 11:18 42.06086 -101.57223 25032 ft 240 kts 66°
2026-04-25 11:18 42.06785 -101.55184 25030 ft 240 kts 66°
2026-04-25 11:18 42.07485 -101.53141 25026 ft 240 kts 66°
2026-04-25 11:18 42.08173 -101.51128 25031 ft 240 kts 66°
2026-04-25 11:19 42.08871 -101.49088 25026 ft 240 kts 66°
2026-04-25 11:19 42.09567 -101.47049 25028 ft 240 kts 66°
2026-04-25 11:19 42.10265 -101.45006 25026 ft 240 kts 66°
2026-04-25 11:19 42.10961 -101.42965 25029 ft 240 kts 66°
2026-04-25 11:20 42.11657 -101.40922 25029 ft 240 kts 66°
2026-04-25 11:20 42.12354 -101.38879 25027 ft 240 kts 66°
2026-04-25 11:20 42.13050 -101.36832 25029 ft 240 kts 66°
2026-04-25 11:20 42.13746 -101.34788 25037 ft 240 kts 66°
2026-04-25 11:21 42.14440 -101.32744 25033 ft 240 kts 66°
2026-04-25 11:21 42.14909 -101.31363 25037 ft 240 kts 66°
2026-04-25 11:21 42.15825 -101.28666 25042 ft 238 kts 67°
2026-04-25 11:21 42.16512 -101.26638 25041 ft 238 kts 67°
2026-04-25 11:22 42.16976 -101.25269 25037 ft 238 kts 67°
2026-04-25 11:22 42.17664 -101.23238 25036 ft 238 kts 67°
2026-04-25 11:22 42.18351 -101.21208 25037 ft 238 kts 67°
2026-04-25 11:22 42.19037 -101.19180 25036 ft 237 kts 67°
2026-04-25 11:23 42.19911 -101.17297 25047 ft 237 kts 52°
2026-04-25 11:23 42.20796 -101.15418 25046 ft 237 kts 63°
2026-04-25 11:23 42.21496 -101.13404 25046 ft 237 kts 69°
2026-04-25 11:23 42.22140 -101.11364 25049 ft 237 kts 69°
2026-04-25 11:24 42.22808 -101.09331 25049 ft 237 kts 68°
2026-04-25 11:24 42.23493 -101.07308 25049 ft 237 kts 67°
2026-04-25 11:24 42.24170 -101.05312 25049 ft 237 kts 67°
2026-04-25 11:24 42.24863 -101.03257 25056 ft 237 kts 68°
2026-04-25 11:25 42.25535 -101.01257 25052 ft 237 kts 68°
2026-04-25 11:25 42.26215 -100.99234 25053 ft 237 kts 68°
2026-04-25 11:25 42.26897 -100.97201 25054 ft 237 kts 68°
2026-04-25 11:25 42.27578 -100.95172 25054 ft 237 kts 68°
2026-04-25 11:26 42.28258 -100.93145 25052 ft 237 kts 68°
2026-04-25 11:26 42.28938 -100.91117 25053 ft 237 kts 68°
2026-04-25 11:26 42.29618 -100.89086 25054 ft 237 kts 68°
2026-04-25 11:26 42.30296 -100.87061 25052 ft 237 kts 68°
2026-04-25 11:27 42.30974 -100.85030 25057 ft 237 kts 68°
2026-04-25 11:27 42.31653 -100.82998 25056 ft 237 kts 68°
2026-04-25 11:27 42.32332 -100.80966 25056 ft 237 kts 68°
2026-04-25 11:27 42.32789 -100.79597 25058 ft 237 kts 68°
2026-04-25 11:28 42.33686 -100.76904 25053 ft 237 kts 68°
2026-04-25 11:28 42.34362 -100.74877 25053 ft 237 kts 68°
2026-04-25 11:28 42.35038 -100.72844 25053 ft 237 kts 68°
2026-04-25 11:28 42.35714 -100.70813 25058 ft 237 kts 68°
2026-04-25 11:29 42.36391 -100.68777 25064 ft 237 kts 68°
2026-04-25 11:29 42.37066 -100.66743 25064 ft 237 kts 68°
2026-04-25 11:29 42.37742 -100.64707 25065 ft 237 kts 68°
2026-04-25 11:29 42.38416 -100.62674 25064 ft 237 kts 68°
2026-04-25 11:30 42.39091 -100.60638 25064 ft 237 kts 68°
2026-04-25 11:30 42.39766 -100.58600 25063 ft 237 kts 68°
2026-04-25 11:30 42.40440 -100.56563 25055 ft 237 kts 69°
2026-04-25 11:30 42.41113 -100.54526 25055 ft 237 kts 69°
2026-04-25 11:31 42.41786 -100.52490 25058 ft 237 kts 69°
2026-04-25 11:31 42.42459 -100.50451 25059 ft 237 kts 69°
2026-04-25 11:31 42.43131 -100.48414 25060 ft 237 kts 69°
2026-04-25 11:31 42.43804 -100.46373 25059 ft 237 kts 69°
2026-04-25 11:32 42.44475 -100.44336 25056 ft 237 kts 69°
2026-04-25 11:32 42.45145 -100.42299 25062 ft 237 kts 69°
2026-04-25 11:32 42.45818 -100.40255 25062 ft 237 kts 69°
2026-04-25 11:32 42.46488 -100.38216 25061 ft 237 kts 69°
2026-04-25 11:33 42.47157 -100.36178 25062 ft 237 kts 69°
2026-04-25 11:33 42.47826 -100.34141 25062 ft 237 kts 69°
2026-04-25 11:33 42.48493 -100.32105 25062 ft 236 kts 69°
2026-04-25 11:33 42.49160 -100.30070 25061 ft 236 kts 69°
2026-04-25 11:34 42.49827 -100.28033 25060 ft 236 kts 69°
2026-04-25 11:34 42.50494 -100.25996 25061 ft 236 kts 69°
2026-04-25 11:34 42.51161 -100.23955 25062 ft 236 kts 69°
2026-04-25 11:34 42.51828 -100.21913 25061 ft 236 kts 69°
2026-04-25 11:35 42.52493 -100.19876 25052 ft 236 kts 70°
2026-04-25 11:35 42.53158 -100.17838 25059 ft 236 kts 70°
2026-04-25 11:35 42.53814 -100.15823 25059 ft 237 kts 70°
2026-04-25 11:35 42.54478 -100.13784 25058 ft 237 kts 70°
2026-04-25 11:36 42.55144 -100.11740 25060 ft 237 kts 70°
2026-04-25 11:36 42.55809 -100.09694 25061 ft 237 kts 70°
2026-04-25 11:36 42.56473 -100.07650 25061 ft 237 kts 70°
2026-04-25 11:36 42.57138 -100.05602 25061 ft 237 kts 70°
2026-04-25 11:37 42.57802 -100.03558 25063 ft 237 kts 70°
2026-04-25 11:37 42.58465 -100.01510 25076 ft 237 kts 70°
2026-04-25 11:37 42.59131 -99.99454 25068 ft 238 kts 70°
2026-04-25 11:37 42.59797 -99.97398 25068 ft 238 kts 70°
2026-04-25 11:38 42.60462 -99.95344 25068 ft 238 kts 70°
2026-04-25 11:38 42.61127 -99.93287 25068 ft 238 kts 70°
2026-04-25 11:38 42.61792 -99.91226 25068 ft 238 kts 70°
2026-04-25 11:38 42.62456 -99.89168 25069 ft 238 kts 70°
2026-04-25 11:39 42.63122 -99.87106 25069 ft 238 kts 70°
2026-04-25 11:39 42.63785 -99.85045 25069 ft 238 kts 70°
2026-04-25 11:39 42.64450 -99.82981 25070 ft 238 kts 71°
2026-04-25 11:39 42.65114 -99.80916 25070 ft 239 kts 71°
2026-04-25 11:40 42.65780 -99.78844 25067 ft 239 kts 71°
2026-04-25 11:40 42.66445 -99.76774 25067 ft 239 kts 71°
2026-04-25 11:40 42.67103 -99.74725 25067 ft 239 kts 71°
2026-04-25 11:40 42.67767 -99.72655 25070 ft 239 kts 71°
2026-04-25 11:41 42.68434 -99.70573 25058 ft 241 kts 71°
2026-04-25 11:41 42.69103 -99.68486 25070 ft 240 kts 71°
2026-04-25 11:41 42.69770 -99.66403 25144 ft 235 kts 71°
2026-04-25 11:41 42.70433 -99.64332 25079 ft 240 kts 71°
2026-04-25 11:42 42.71097 -99.62251 25082 ft 240 kts 71°
2026-04-25 11:42 42.71763 -99.60163 25082 ft 240 kts 71°
2026-04-25 11:42 42.72427 -99.58084 25083 ft 239 kts 71°
2026-04-25 11:42 42.73080 -99.56035 25086 ft 240 kts 71°
2026-04-25 11:43 42.73743 -99.53950 25082 ft 240 kts 71°
2026-04-25 11:43 42.74407 -99.51865 25084 ft 240 kts 71°
2026-04-25 11:43 42.75069 -99.49783 25084 ft 240 kts 71°
2026-04-25 11:43 42.75732 -99.47698 25086 ft 240 kts 71°
2026-04-25 11:44 42.76394 -99.45612 25073 ft 240 kts 71°
2026-04-25 11:44 42.77057 -99.43521 25074 ft 240 kts 71°
2026-04-25 11:44 42.77719 -99.41435 25074 ft 240 kts 71°
2026-04-25 11:44 42.78381 -99.39346 25073 ft 240 kts 71°
2026-04-25 11:45 42.79044 -99.37251 25079 ft 241 kts 71°
2026-04-25 11:45 42.79707 -99.35155 25079 ft 241 kts 71°
2026-04-25 11:45 42.80369 -99.33059 25079 ft 241 kts 71°
2026-04-25 11:45 42.81030 -99.30965 25083 ft 241 kts 71°
2026-04-25 11:46 42.81691 -99.28871 25082 ft 241 kts 71°
2026-04-25 11:46 42.82352 -99.26775 25081 ft 241 kts 71°
2026-04-25 11:46 42.83011 -99.24681 25081 ft 241 kts 71°
2026-04-25 11:46 42.83671 -99.22586 25079 ft 240 kts 71°
2026-04-25 11:47 42.84330 -99.20490 25079 ft 241 kts 71°
2026-04-25 11:47 42.84988 -99.18395 25079 ft 241 kts 71°
2026-04-25 11:47 42.85648 -99.16295 25078 ft 240 kts 71°
2026-04-25 11:47 42.86297 -99.14226 25087 ft 240 kts 71°
2026-04-25 11:48 42.86955 -99.12126 25091 ft 241 kts 72°
2026-04-25 11:48 42.87614 -99.10023 25091 ft 241 kts 71°
2026-04-25 11:48 42.88274 -99.07915 25086 ft 241 kts 71°
2026-04-25 11:48 42.88933 -99.05809 25088 ft 241 kts 71°
2026-04-25 11:49 42.89563 -99.03696 25087 ft 241 kts 74°
2026-04-25 11:49 42.90152 -99.01561 25086 ft 240 kts 75°
2026-04-25 11:49 42.90743 -98.99427 25088 ft 240 kts 74°
2026-04-25 11:49 42.91346 -98.97295 25088 ft 241 kts 74°
2026-04-25 11:50 42.91748 -98.95881 25089 ft 241 kts 74°
2026-04-25 11:50 42.92556 -98.93026 25095 ft 241 kts 74°
2026-04-25 11:50 42.93158 -98.90890 25095 ft 241 kts 74°
2026-04-25 11:50 42.93760 -98.88754 25094 ft 241 kts 74°
2026-04-25 11:51 42.94361 -98.86621 25094 ft 241 kts 74°
2026-04-25 11:51 42.94960 -98.84494 25096 ft 241 kts 74°
2026-04-25 11:51 42.95560 -98.82359 25095 ft 241 kts 74°
2026-04-25 11:51 42.96160 -98.80224 25096 ft 241 kts 74°
2026-04-25 11:52 42.96761 -98.78083 25100 ft 241 kts 74°
2026-04-25 11:52 42.97353 -98.75973 25101 ft 241 kts 74°
2026-04-25 11:52 42.97953 -98.73833 25101 ft 241 kts 74°
2026-04-25 11:52 42.98553 -98.71689 25083 ft 241 kts 73°
2026-04-25 11:53 42.99151 -98.69554 25100 ft 241 kts 73°
2026-04-25 11:53 42.99748 -98.67418 25101 ft 241 kts 73°
2026-04-25 11:53 43.00344 -98.65283 25100 ft 241 kts 73°
2026-04-25 11:53 43.00942 -98.63141 25100 ft 241 kts 73°
2026-04-25 11:54 43.01539 -98.61002 25097 ft 241 kts 73°
2026-04-25 11:54 43.02135 -98.58860 25099 ft 241 kts 73°
2026-04-25 11:54 43.03328 -98.54574 25101 ft 241 kts 73°
2026-04-25 11:55 43.03924 -98.52426 25105 ft 241 kts 73°
2026-04-25 11:55 43.04521 -98.50278 25105 ft 242 kts 73°
2026-04-25 11:55 43.05111 -98.48148 25107 ft 242 kts 73°
2026-04-25 11:55 43.05708 -98.45998 25108 ft 242 kts 73°
2026-04-25 11:56 43.06304 -98.43845 25108 ft 242 kts 73°
2026-04-25 11:56 43.06899 -98.41695 25050 ft 242 kts 73°
2026-04-25 11:56 43.07493 -98.39546 25050 ft 241 kts 73°
2026-04-25 11:56 43.08086 -98.37397 25050 ft 241 kts 73°
2026-04-25 11:57 43.08679 -98.35250 25050 ft 241 kts 73°
2026-04-25 11:57 43.09270 -98.33106 25051 ft 240 kts 73°
2026-04-25 11:57 43.09860 -98.30963 25049 ft 241 kts 73°
2026-04-25 11:57 43.10451 -98.28816 25050 ft 241 kts 73°
2026-04-25 11:58 43.11043 -98.26663 24989 ft 245 kts 73°
2026-04-25 11:58 43.11653 -98.24431 24760 ft 256 kts 73°
2026-04-25 11:58 43.12290 -98.22106 24461 ft 266 kts 73°
2026-04-25 11:58 43.12951 -98.19701 24141 ft 274 kts 72°
2026-04-25 11:59 43.13630 -98.17225 23791 ft 280 kts 72°
2026-04-25 11:59 43.14321 -98.14701 23418 ft 285 kts 72°
2026-04-25 11:59 43.15021 -98.12144 23022 ft 287 kts 72°
2026-04-25 12:00 43.16422 -98.07017 22271 ft 288 kts 72°
2026-04-25 12:00 43.17121 -98.04450 21896 ft 287 kts 72°
2026-04-25 12:00 43.18484 -97.99439 21152 ft 276 kts 71°
2026-04-25 12:01 43.19149 -97.96993 20781 ft 272 kts 71°
2026-04-25 12:01 43.19807 -97.94571 20414 ft 270 kts 71°
2026-04-25 12:01 43.20457 -97.92171 20065 ft 268 kts 71°
2026-04-25 12:01 43.21103 -97.89786 19713 ft 266 kts 71°
2026-04-25 12:02 43.22384 -97.85049 19011 ft 263 kts 71°
2026-04-25 12:02 43.23020 -97.82697 18662 ft 262 kts 71°
2026-04-25 12:02 43.23652 -97.80354 18303 ft 261 kts 70°
2026-04-25 12:03 43.24279 -97.78029 17930 ft 259 kts 71°
2026-04-25 12:03 43.24900 -97.75724 17585 ft 256 kts 71°
2026-04-25 12:03 43.25515 -97.73439 17242 ft 255 kts 72°
2026-04-25 12:03 43.26127 -97.71163 16899 ft 253 kts 72°
2026-04-25 12:04 43.26733 -97.68904 16565 ft 252 kts 72°
2026-04-25 12:04 43.27337 -97.66652 16231 ft 251 kts 72°
2026-04-25 12:04 43.27939 -97.64407 15898 ft 250 kts 73°
2026-04-25 12:04 43.28336 -97.62925 15678 ft 249 kts 73°
2026-04-25 12:05 43.28933 -97.60695 15349 ft 248 kts 73°
2026-04-25 12:05 43.29527 -97.58473 15007 ft 247 kts 75°
2026-04-25 12:05 43.30117 -97.56269 14681 ft 245 kts 75°
2026-04-25 12:05 43.30890 -97.53369 14257 ft 243 kts 76°
2026-04-25 12:06 43.31282 -97.51899 14040 ft 242 kts 76°
2026-04-25 12:06 43.31859 -97.49733 13698 ft 241 kts 77°
2026-04-25 12:06 43.32431 -97.47588 13357 ft 238 kts 77°
2026-04-25 12:06 43.32994 -97.45473 13041 ft 234 kts 77°
2026-04-25 12:07 43.33549 -97.43384 12731 ft 231 kts 77°
2026-04-25 12:07 43.34095 -97.41328 12420 ft 228 kts 78°
2026-04-25 12:07 43.34635 -97.39292 12113 ft 225 kts 78°
2026-04-25 12:07 43.35159 -97.37314 11818 ft 222 kts 78°
2026-04-25 12:08 43.35684 -97.35334 11518 ft 219 kts 79°
2026-04-25 12:08 43.36202 -97.33377 11228 ft 217 kts 79°
2026-04-25 12:08 43.36713 -97.31442 10939 ft 214 kts 79°
2026-04-25 12:08 43.37219 -97.29527 10656 ft 212 kts 80°
2026-04-25 12:09 43.37718 -97.27637 10358 ft 209 kts 80°
2026-04-25 12:09 43.38211 -97.25770 10078 ft 206 kts 80°
2026-04-25 12:09 43.38696 -97.23926 9783 ft 204 kts 80°
2026-04-25 12:09 43.39177 -97.22104 9495 ft 201 kts 80°
2026-04-25 12:10 43.39646 -97.20320 9222 ft 197 kts 79°
2026-04-25 12:10 43.40108 -97.18563 8950 ft 194 kts 79°
2026-04-25 12:10 43.40562 -97.16835 8683 ft 190 kts 79°
2026-04-25 12:10 43.41007 -97.15138 8418 ft 187 kts 78°
2026-04-25 12:11 43.41446 -97.13465 8155 ft 184 kts 77°
2026-04-25 12:11 43.41877 -97.11824 7905 ft 181 kts 77°
2026-04-25 12:11 43.42301 -97.10203 7658 ft 179 kts 76°
2026-04-25 12:11 43.42719 -97.08605 7417 ft 176 kts 76°
2026-04-25 12:12 43.43132 -97.07030 7179 ft 173 kts 76°
2026-04-25 12:12 43.43535 -97.05489 6946 ft 170 kts 76°
2026-04-25 12:12 43.43931 -97.03974 6719 ft 167 kts 75°
2026-04-25 12:12 43.44321 -97.02477 6493 ft 164 kts 74°
2026-04-25 12:13 43.44703 -97.01016 6270 ft 160 kts 75°
2026-04-25 12:13 43.45073 -96.99598 6054 ft 155 kts 75°
2026-04-25 12:13 43.45430 -96.98230 5841 ft 150 kts 75°
2026-04-25 12:13 43.45776 -96.96899 5647 ft 146 kts 75°
2026-04-25 12:14 43.46114 -96.95601 5453 ft 142 kts 75°
2026-04-25 12:14 43.46444 -96.94334 5265 ft 139 kts 75°
2026-04-25 12:14 43.46767 -96.93092 5080 ft 136 kts 75°
2026-04-25 12:14 43.47084 -96.91870 4899 ft 135 kts 75°
2026-04-25 12:15 43.47394 -96.90678 4720 ft 132 kts 75°
2026-04-25 12:15 43.47703 -96.89488 4542 ft 129 kts 75°
2026-04-25 12:15 43.48003 -96.88332 4373 ft 127 kts 75°
2026-04-25 12:15 43.48299 -96.87193 4202 ft 126 kts 75°
2026-04-25 12:16 43.48587 -96.86081 4039 ft 123 kts 74°
2026-04-25 12:16 43.48873 -96.84980 3874 ft 121 kts 74°
2026-04-25 12:16 43.49153 -96.83898 3718 ft 120 kts 73°
2026-04-25 12:16 43.49656 -96.82982 3554 ft 126 kts 41°
2026-04-25 12:17 43.50521 -96.82699 3463 ft 132 kts
2026-04-25 12:17 43.51332 -96.83276 3456 ft 135 kts 316°
2026-04-25 12:17 43.51675 -96.84450 3457 ft 133 kts 272°
2026-04-25 12:17 43.51466 -96.85625 3455 ft 123 kts 231°
2026-04-25 12:18 43.50892 -96.86385 3456 ft 110 kts 202°
2026-04-25 12:18 43.50255 -96.86949 3455 ft 108 kts 202°
2026-04-25 12:18 43.49632 -96.87495 3454 ft 105 kts 202°
2026-04-25 12:18 43.48979 -96.88060 3474 ft 117 kts 203°
2026-04-25 12:19 43.47765 -96.89128 3472 ft 130 kts 204°
2026-04-25 12:19 43.46698 -96.89799 3464 ft 123 kts 176°
2026-04-25 12:19 43.45906 -96.89595 3464 ft 112 kts 146°
2026-04-25 12:20 43.45346 -96.88912 3466 ft 106 kts 119°
2026-04-25 12:20 43.45107 -96.87975 3469 ft 104 kts 95°
2026-04-25 12:20 43.45223 -96.86994 3469 ft 106 kts 71°
2026-04-25 12:20 43.45690 -96.86181 3469 ft 113 kts 45°
2026-04-25 12:21 43.46358 -96.85576 3473 ft 115 kts 40°
2026-04-25 12:21 43.47025 -96.84994 3447 ft 108 kts 40°
2026-04-25 12:21 43.47624 -96.84472 3453 ft 98 kts 42°
2026-04-25 12:21 43.48181 -96.83982 3465 ft 95 kts 42°
2026-04-25 12:22 43.48738 -96.83484 3459 ft 95 kts 43°
2026-04-25 12:22 43.49292 -96.82975 3434 ft 96 kts 43°
2026-04-25 12:22 43.49847 -96.82461 3320 ft 98 kts 44°
2026-04-25 12:22 43.50417 -96.81930 3189 ft 99 kts 42°
2026-04-25 12:23 43.50984 -96.81387 3047 ft 99 kts 42°
2026-04-25 12:23 43.51550 -96.80843 2914 ft 99 kts 44°
2026-04-25 12:23 43.52122 -96.80293 2778 ft 100 kts 43°
2026-04-25 12:23 43.52692 -96.79746 2639 ft 98 kts 43°
2026-04-25 12:24 43.53251 -96.79214 2495 ft 96 kts 41°
2026-04-25 12:24 43.53802 -96.78685 2349 ft 97 kts 39°
2026-04-25 12:24 43.54363 -96.78147 2191 ft 99 kts 37°
2026-04-25 12:24 43.54920 -96.77610 2054 ft 97 kts 36°
2026-04-25 12:25 43.55464 -96.77089 1919 ft 86 kts 34°
2026-04-25 12:25 43.55917 -96.76653 1780 ft 75 kts 36°
2026-04-25 12:25 43.56342 -96.76250 1699 ft 78 kts 34°
2026-04-25 12:25 43.56815 -96.75798 1586 ft 86 kts 34°
2026-04-25 12:26 43.57272 -96.75361 1477 ft 72 kts 31°
2026-04-25 12:26 43.57584 -96.75071 1424 ft 29 kts 36°
2026-04-25 12:26 43.57702 -96.74948 1424 ft 18 kts 39°
2026-04-25 12:26 43.57713 -96.74813 1426 ft 10 kts 111°
2026-04-25 12:27 43.57691 -96.74722 1426 ft 10 kts 103°
2026-04-25 12:27 43.57697 -96.74648 1426 ft 3 kts 13°
2026-04-25 12:27 43.57795 -96.74591 1427 ft 31 kts 33°
2026-04-25 12:27 43.57993 -96.74396 1426 ft 33 kts 34°
2026-04-25 12:28 43.58156 -96.74242 1425 ft 29 kts 36°
2026-04-25 12:28 43.58319 -96.74071 1425 ft 25 kts 37°
2026-04-25 12:28 43.58447 -96.73913 1426 ft 14 kts 60°
2026-04-25 12:28 43.58482 -96.73730 1426 ft 29 kts 90°
2026-04-25 12:29 43.58431 -96.73565 1426 ft 20 kts 172°
2026-04-25 12:29 43.58383 -96.73515 1426 ft 0 kts 90°